T10BNORTH Weather Reports


time (UTC)temp
C
wind
direction
speed
KPH
gust
KPH
rain 1hr
cm
rain 24hr
cm
rain mn
cm
humidity
%
barometer
mb
20260507003041 10 279 0.0 3.2 0.00 1.50 1.50 100 1003.9
20260507002943 10 279 0.0 3.2 0.00 1.50 1.50 100 1003.9
20260507002839 10 279 0.0 3.2 0.00 1.50 1.50 100 1004.0
20260507002741 10 279 0.0 3.2 0.00 1.50 1.50 100 1003.9
20260507002629 10 279 0.0 3.2 0.00 1.50 1.50 99 1004.0
20260507002529 10 279 0.0 3.2 0.00 1.50 1.50 99 1003.9
20260507002430 10 279 0.0 3.2 0.00 1.50 1.50 99 1003.9
20260507002327 10 279 0.0 3.2 0.00 1.50 1.50 99 1003.9
20260507002226 10 279 0.0 3.2 0.00 1.50 1.50 99 1003.9
20260507002119 10 204 0.0 1.6 0.00 1.50 1.50 100 1003.9
20260507002020 10 204 0.0 0.0 0.00 1.50 1.50 100 1003.9
20260507001921 10 205 0.0 0.0 0.00 1.50 1.50 100 1004.0
20260507001819 10 204 0.0 0.0 0.00 1.50 1.50 100 1004.0
20260507001721 10 204 0.0 0.0 0.00 1.50 1.50 100 1003.8
20260507001615 10 205 0.0 0.0 0.00 1.50 1.50 100 1003.8
20260507001515 10 204 0.0 1.6 0.00 1.50 1.50 100 1003.8
20260507001414 10 204 0.0 1.6 0.00 1.50 1.50 100 1003.8
20260507001315 10 205 0.0 1.6 0.00 1.50 1.50 100 1003.8
20260507001215 10 204 0.0 1.6 0.00 1.50 1.50 100 1003.7
20260507001108 10 205 0.0 1.6 0.00 1.50 1.50 100 1003.6
20260507001015 10 204 0.0 4.8 0.00 1.50 1.50 99 1003.5
20260507000955 10 204 0.0 4.8 0.00 1.50 1.50 100 1003.5
20260507000806 10 204 0.0 4.8 0.00 1.50 1.50 100 1003.5
20260507000704 10 204 0.0 4.8 0.00 1.50 1.50 100 1003.6
20260507000601 10 205 0.0 4.8 0.00 1.50 1.50 100 1003.7
20260507000501 10 206 0.0 4.8 0.00 1.50 1.50 100 1003.7
20260507000405 10 205 0.0 4.8 0.00 1.50 1.50 100 1003.7
20260507000301 10 205 0.0 4.8 0.00 1.50 1.50 100 1003.7
20260507000159 10 206 0.0 4.8 0.00 1.50 1.50 100 1003.7
20260507000055 10 203 0.0 4.8 0.00 1.50 1.50 99 1003.6
20260506235952 10 215 0.0 4.8 0.00 1.50 1.50 99 1003.6
20260506235750 10 221 0.0 4.8 0.00 1.50 1.50 99 1003.5
20260506235651 10 221 0.0 4.8 0.00 1.50 1.50 99 1003.6
20260506235542 10 346 0.0 1.6 0.00 1.50 1.50 99 1003.5
20260506235505 10 11 0.0 3.2 0.00 1.50 1.50 99 1003.5
20260506235340 10 11 0.0 3.2 0.00 1.50 1.50 99 1003.5
20260506235237 10 11 0.0 8.0 0.00 1.50 1.50 99 1003.4
20260506235136 10 11 0.0 8.0 0.00 1.50 1.50 99 1003.4
20260506235035 11 0 0.0 8.0 0.00 1.50 1.50 99 1003.5
20260506234934 11 0 0.0 8.0 0.00 1.50 1.50 99 1003.4
20260506234833 11 0 0.0 8.0 0.00 1.50 1.50 100 1003.4
20260506234732 11 0 0.0 8.0 0.00 1.50 1.50 100 1003.4
20260506234631 11 0 0.0 8.0 0.00 1.50 1.50 100 1003.4
20260506234525 11 5 0.0 8.0 0.00 1.50 1.50 100 1003.3
20260506234423 11 338 0.0 8.0 0.00 1.50 1.50 100 1003.4
20260506234324 11 338 0.0 8.0 0.00 1.50 1.50 100 1003.3
20260506234221 11 145 0.0 1.6 0.00 1.50 1.50 100 1003.3
20260506234122 11 145 0.0 1.6 0.00 1.50 1.50 100 1003.2
20260506234014 11 145 0.0 1.6 0.00 1.50 1.50 100 1003.2
20260506233912 11 145 0.0 1.6 0.00 1.50 1.50 100 1003.1
20260506233811 11 145 0.0 1.6 0.00 1.50 1.50 100 1003.2
20260506233713 11 145 0.0 1.6 0.00 1.50 1.50 100 1003.2
20260506233612 11 145 0.0 0.0 0.00 1.50 1.50 100 1003.2
20260506233506 11 145 0.0 0.0 0.00 1.50 1.50 100 1003.1
20260506233405 11 145 0.0 1.6 0.00 1.50 1.50 100 1003.2
20260506233307 11 145 0.0 1.6 0.00 1.50 1.50 100 1003.1
20260506233205 11 145 0.0 1.6 0.00 1.50 1.50 100 1003.1
20260506233106 12 145 0.0 1.6 0.00 1.50 1.50 100 1003.1
20260506233006 12 145 0.0 1.6 0.00 1.50 1.50 100 1003.1
20260506232904 12 145 0.0 1.6 0.00 1.50 1.50 100 1003.1
20260506232804 12 145 0.0 1.6 0.00 1.50 1.50 100 1003.1
20260506232703 12 145 0.0 1.6 0.03 1.50 1.50 100 1003.1
20260506232600 12 145 0.0 1.6 0.05 1.50 1.50 100 1003.1
20260506232452 12 145 0.0 1.6 0.08 1.50 1.50 100 1003.1
20260506232253 12 145 0.0 3.2 0.10 1.50 1.50 100 1003.1
20260506232151 12 145 0.0 3.2 0.13 1.50 1.50 100 1003.0
20260506232051 12 145 0.0 3.2 0.15 1.50 1.50 100 1003.0
20260506231952 12 145 0.0 3.2 0.20 1.50 1.50 100 1003.0
20260506231749 12 146 0.0 3.2 0.20 1.50 1.50 100 1003.0
20260506231649 12 146 0.0 3.2 0.23 1.50 1.50 100 1003.1
20260506231549 12 146 0.0 3.2 0.23 1.50 1.50 100 1003.1
20260506231451 12 141 0.0 3.2 0.25 1.50 1.50 100 1003.1
20260506231251 12 175 0.0 3.2 0.28 1.50 1.50 100 1003.1
20260506231149 12 175 0.0 3.2 0.30 1.50 1.50 100 1003.1
20260506231050 12 175 0.0 3.2 0.30 1.50 1.50 100 1003.0
20260506230950 12 151 0.0 3.2 0.30 1.50 1.50 100 1003.1
20260506230848 12 151 0.0 3.2 0.33 1.50 1.50 100 1003.1
20260506230649 13 149 0.0 3.2 0.33 1.50 1.50 100 1003.1
20260506230551 13 142 0.0 3.2 0.33 1.50 1.50 100 1003.1
20260506230449 13 162 0.0 0.0 0.33 1.50 1.50 100 1003.1
20260506230249 13 117 0.0 0.0 0.36 1.50 1.50 100 1003.1
20260506230151 13 117 0.0 0.0 0.36 1.50 1.50 100 1003.1
20260506230049 13 117 0.0 0.0 0.36 1.50 1.50 100 1003.0
20260506225950 13 112 0.0 0.0 0.36 1.50 1.50 100 1003.0
20260506225746 13 111 0.0 0.0 0.38 1.50 1.50 100 1003.0
20260506225645 13 111 0.0 0.0 0.38 1.50 1.50 100 1003.0
20260506225547 13 114 0.0 0.0 0.38 1.50 1.50 100 1003.0
20260506225446 13 115 0.0 0.0 0.38 1.50 1.50 100 1003.0
20260506225247 13 115 0.0 0.0 0.41 1.50 1.50 100 1003.0
20260506225142 13 115 0.0 1.6 0.43 1.50 1.50 100 1002.9
20260506225042 13 115 0.0 1.6 0.43 1.50 1.50 100 1002.9
20260506224943 13 115 0.0 1.6 0.46 1.50 1.50 100 1002.9
20260506224742 13 115 0.0 1.6 0.46 1.50 1.50 100 1002.9
20260506224643 13 115 0.0 1.6 0.46 1.50 1.50 100 1002.8
20260506224541 13 115 0.0 1.6 0.46 1.50 1.50 100 1002.8
20260506224441 13 115 0.0 1.6 0.46 1.50 1.50 100 1002.9
20260506224242 13 115 0.0 1.6 0.46 1.50 1.50 100 1002.9
20260506224141 13 83 0.0 1.6 0.46 1.50 1.50 100 1002.9
20260506224041 13 83 0.0 1.6 0.48 1.50 1.50 100 1002.8
20260506223941 13 83 0.0 1.6 0.48 1.50 1.50 100 1002.8
20260506223741 13 82 0.0 3.2 0.51 1.50 1.50 100 1002.9
20260506223643 13 34 0.0 11.3 0.51 1.50 1.50 100 1002.9
20260506223541 13 34 0.0 11.3 0.51 1.50 1.50 100 1002.9
20260506223443 13 34 0.0 11.3 0.51 1.50 1.50 100 1002.9
20260506223342 13 34 0.0 11.3 0.51 1.50 1.50 100 1002.9
20260506223241 13 33 0.0 11.3 0.51 1.50 1.50 100 1003.0
20260506223143 13 34 0.0 11.3 0.53 1.50 1.50 100 1002.9
20260506223041 13 34 0.0 11.3 0.56 1.50 1.50 100 1002.9
20260506223004 13 49 0.0 11.3 0.56 1.50 1.50 100 1002.9
20260506222942 13 355 0.0 11.3 0.56 1.50 1.50 100 1002.9
20260506222742 13 355 0.0 11.3 0.56 1.47 1.50 100 1002.9
20260506222642 13 49 0.0 9.7 0.56 1.47 1.47 100 1003.0
20260506222542 13 226 0.0 9.7 0.56 1.45 1.47 100 1002.9
20260506222442 13 294 0.0 9.7 0.53 1.42 1.45 100 1003.0
20260506222242 13 294 0.0 9.7 0.53 1.40 1.40 100 1002.9
20260506222142 13 294 0.0 9.7 0.51 1.37 1.40 100 1002.8
20260506222040 13 263 1.6 9.7 0.51 1.35 1.37 100 1002.8
20260506221941 13 261 1.6 9.7 0.46 1.30 1.32 100 1002.8
20260506221742 13 279 1.6 11.3 0.46 1.30 1.30 100 1002.6
20260506221641 13 190 3.2 11.3 0.46 1.27 1.27 100 1002.6
20260506221542 13 134 3.2 11.3 0.46 1.27 1.27 100 1002.5
20260506221442 13 148 3.2 11.3 0.43 1.24 1.27 100 1002.6
20260506221343 13 155 3.2 11.3 0.43 1.24 1.24 100 1002.5
20260506221242 13 119 3.2 11.3 0.41 1.22 1.22 100 1002.5
20260506221208 13 180 3.2 11.3 0.41 1.19 1.22 100 1002.5
20260506221043 13 130 3.2 11.3 0.41 1.19 1.19 100 1002.5
20260506221001 13 136 3.2 11.3 0.41 1.19 1.19 100 1002.6
20260506220941 13 126 1.6 11.3 0.38 1.17 1.17 100 1002.6
20260506220741 13 151 1.6 9.7 0.38 1.17 1.17 100 1002.6
20260506220641 13 126 1.6 9.7 0.41 1.17 1.17 100 1002.6
20260506220543 13 138 1.6 9.7 0.41 1.17 1.17 100 1002.6
20260506220437 13 163 1.6 9.7 0.38 1.17 1.17 100 1002.6
20260506220237 13 171 1.6 11.3 0.38 1.17 1.14 100 1002.6
20260506220138 13 123 1.6 11.3 0.38 1.19 1.14 100 1002.6
20260506220037 13 150 1.6 11.3 0.38 1.19 1.14 100 1002.6
20260506215937 13 160 1.6 11.3 0.38 1.19 1.14 100 1002.6
20260506215736 13 139 1.6 11.3 0.36 1.19 1.14 100 1002.8
20260506215634 13 180 0.0 11.3 0.36 1.22 1.12 100 1002.8
20260506215535 13 136 0.0 11.3 0.36 1.22 1.12 100 1002.8
20260506215435 13 122 0.0 11.3 0.36 1.22 1.12 100 1002.8
20260506215230 13 138 0.0 9.7 0.33 1.22 1.12 100 1002.8
20260506215125 13 142 1.6 9.7 0.30 1.19 1.09 100 1002.8
20260506215024 13 155 1.6 9.7 0.30 1.22 1.07 100 1002.8
20260506214921 13 153 1.6 9.7 0.28 1.19 1.07 100 1002.8
20260506214719 13 167 1.6 9.7 0.30 1.22 1.04 100 1002.8
20260506214617 13 143 1.6 9.7 0.30 1.22 1.04 100 1002.8
20260506214517 13 133 1.6 9.7 0.30 1.22 1.04 100 1002.8
20260506214418 13 174 1.6 12.9 0.30 1.22 1.04 100 1002.8
20260506214211 13 137 1.6 12.9 0.30 1.22 1.04 100 1002.8
20260506214111 13 163 1.6 12.9 0.30 1.22 1.04 100 1002.8
20260506214011 13 157 1.6 12.9 0.28 1.22 1.04 100 1002.8
20260506213913 13 164 3.2 12.9 0.30 1.22 1.02 100 1002.9
20260506213700 13 150 3.2 12.9 0.28 1.19 1.02 100 1002.9
20260506213559 13 146 3.2 12.9 0.28 1.19 0.99 100 1002.9
20260506213458 13 144 3.2 12.9 0.28 1.19 0.99 100 1002.9
20260506213400 13 132 3.2 12.9 0.28 1.19 0.99 100 1002.9
20260506213153 13 140 3.2 12.9 0.25 1.19 0.97 100 1002.9
20260506213054 13 202 3.2 12.9 0.23 1.17 0.97 100 1003.0
20260506212954 13 192 1.6 12.9 0.23 1.17 0.94 100 1003.0
20260506212854 13 134 1.6 9.7 0.23 1.17 0.94 100 1003.0
20260506212650 13 128 1.6 9.7 0.20 1.14 0.91 100 1003.1
20260506212627 13 138 1.6 9.7 0.18 1.12 0.89 100 1003.1
20260506212448 13 170 1.6 11.3 0.18 1.12 0.89 100 1003.0
20260506212413 13 147 1.6 11.3 0.15 1.09 0.89 100 1003.0
20260506212351 13 109 3.2 11.3 0.15 1.09 0.86 100 1003.1
20260506212135 13 162 3.2 17.7 0.15 1.09 0.86 100 1003.1
20260506212037 13 171 3.2 17.7 0.13 1.07 0.86 100 1003.0
20260506211836 13 150 3.2 17.7 0.13 1.07 0.84 100 1003.0
20260506211630 13 169 3.2 17.7 0.10 1.04 0.81 100 1003.0
20260506211527 13 153 4.8 17.7 0.13 1.04 0.81 100 1003.1
20260506211426 13 161 4.8 17.7 0.13 1.04 0.81 100 1003.1
20260506211328 13 157 4.8 17.7 0.13 1.04 0.81 100 1003.1
20260506211124 13 134 3.2 16.1 0.10 1.02 0.81 100 1003.0
20260506211021 13 139 3.2 12.9 0.10 1.02 0.79 100 1003.1
20260506210922 13 133 3.2 12.9 0.10 1.02 0.79 100 1003.1
20260506210849 13 155 3.2 12.9 0.10 1.02 0.79 100 1003.1
20260506210826 13 159 3.2 11.3 0.08 0.99 0.79 100 1003.1
20260506210611 13 129 3.2 11.3 0.08 0.99 0.76 100 1003.1
20260506210511 13 132 3.2 11.3 0.08 0.99 0.76 100 1003.2
20260506210412 13 198 3.2 11.3 0.08 0.99 0.76 100 1003.1
20260506210311 13 146 3.2 11.3 0.08 0.99 0.76 100 1003.1
20260506210106 13 167 3.2 11.3 0.08 0.99 0.76 100 1003.1
20260506210006 13 132 3.2 11.3 0.08 0.99 0.76 100 1003.2
20260506205905 13 164 3.2 11.3 0.08 0.99 0.76 100 1003.2
20260506205805 13 155 3.2 11.3 0.08 0.99 0.76 100 1003.2
20260506205600 13 175 3.2 11.3 0.08 0.99 0.76 100 1003.2
20260506205459 13 130 3.2 11.3 0.08 0.99 0.76 100 1003.2
20260506205400 13 156 3.2 11.3 0.08 0.99 0.76 100 1003.2
20260506205259 13 144 3.2 11.3 0.08 0.99 0.76 100 1003.2
20260506205046 13 153 3.2 9.7 0.08 0.99 0.76 100 1003.3
20260506204947 13 151 3.2 12.9 0.08 0.99 0.76 100 1003.2
20260506204847 13 139 3.2 12.9 0.05 0.97 0.76 100 1003.3
20260506204747 13 143 3.2 12.9 0.05 0.97 0.74 100 1003.3
20260506204540 13 155 3.2 12.9 0.05 0.97 0.74 100 1003.4
20260506204440 13 180 3.2 12.9 0.05 0.97 0.74 100 1003.4
20260506204339 13 142 3.2 12.9 0.05 0.97 0.74 100 1003.4
20260506204240 13 140 3.2 12.9 0.05 0.97 0.74 100 1003.4
20260506204037 13 144 1.6 12.9 0.05 0.97 0.74 100 1003.3
20260506203937 13 170 3.2 11.3 0.03 0.94 0.74 100 1003.4
20260506203836 13 155 3.2 11.3 0.03 0.94 0.71 100 1003.4
20260506203736 13 138 3.2 11.3 0.03 0.94 0.71 100 1003.4
20260506203528 13 144 3.2 11.3 0.05 0.94 0.71 100 1003.4
20260506203428 13 140 3.2 11.3 0.05 0.94 0.71 100 1003.4
20260506203324 13 143 3.2 11.3 0.05 0.94 0.71 100 1003.4
20260506203226 13 138 3.2 11.3 0.05 0.94 0.71 100 1003.4
20260506203020 13 137 3.2 12.9 0.05 0.94 0.71 100 1003.5
20260506202918 13 129 3.2 12.9 0.05 0.94 0.71 100 1003.5
20260506202818 13 154 3.2 12.9 0.05 0.94 0.71 100 1003.5
20260506202742 13 187 3.2 12.9 0.05 0.94 0.71 100 1003.5
20260506202721 13 189 3.2 12.9 0.05 0.94 0.71 100 1003.5
20260506202515 13 144 3.2 12.9 0.05 0.94 0.71 100 1003.5
20260506202412 13 169 3.2 12.9 0.05 0.94 0.71 100 1003.5
20260506202310 13 138 3.2 12.9 0.05 0.94 0.71 100 1003.5
20260506202212 13 132 3.2 12.9 0.05 0.94 0.71 100 1003.5
20260506202000 13 184 4.8 14.5 0.05 0.94 0.71 100 1003.6
20260506201857 13 136 3.2 14.5 0.05 0.94 0.71 100 1003.6
20260506201756 13 123 3.2 14.5 0.08 0.94 0.71 100 1003.6
20260506201658 13 163 3.2 14.5 0.08 0.94 0.71 100 1003.6
20260506201451 13 155 3.2 14.5 0.05 0.91 0.69 100 1003.6
20260506201352 13 165 3.2 14.5 0.05 0.91 0.69 100 1003.7
20260506201252 13 183 3.2 14.5 0.05 0.91 0.69 100 1003.7
20260506201153 13 140 3.2 14.5 0.05 0.91 0.69 100 1003.7
20260506200947 13 135 3.2 14.5 0.05 0.91 0.69 100 1003.6
20260506200847 13 171 3.2 14.5 0.05 0.91 0.69 100 1003.7
20260506200748 13 154 3.2 14.5 0.05 0.91 0.69 100 1003.7
20260506200647 13 157 3.2 14.5 0.05 0.91 0.69 100 1003.7
20260506200435 13 161 3.2 14.5 0.08 0.91 0.69 100 1003.7
20260506200335 13 157 3.2 14.5 0.08 0.91 0.69 100 1003.7
20260506200236 13 126 3.2 12.9 0.08 0.91 0.69 100 1003.7
20260506200136 13 171 3.2 12.9 0.08 0.91 0.69 100 1003.7
20260506195930 13 146 3.2 12.9 0.08 0.91 0.69 100 1003.7
20260506195829 13 138 3.2 12.9 0.08 0.91 0.69 100 1003.7
20260506195728 13 168 3.2 12.9 0.08 0.91 0.69 100 1003.7
20260506195630 13 130 3.2 12.9 0.08 0.91 0.69 100 1003.7
20260506195424 13 165 3.2 11.3 0.10 0.91 0.69 100 1003.8
20260506195323 13 131 3.2 11.3 0.10 0.91 0.69 100 1003.8
20260506195224 13 131 3.2 9.7 0.10 0.91 0.69 100 1003.8
20260506195123 13 129 3.2 11.3 0.10 0.91 0.69 100 1003.8
20260506194911 13 143 3.2 11.3 0.10 0.91 0.69 100 1003.8
20260506194811 13 155 1.6 11.3 0.13 0.91 0.69 100 1003.8
20260506194710 13 148 1.6 11.3 0.13 0.91 0.69 100 1003.9
20260506194609 13 123 1.6 11.3 0.13 0.91 0.69 100 1003.9
20260506194402 13 125 1.6 11.3 0.13 0.91 0.69 100 1003.9
20260506194303 13 167 1.6 11.3 0.15 0.91 0.69 100 1004.0
20260506194204 13 186 1.6 11.3 0.15 0.91 0.69 100 1003.9
20260506194104 13 125 1.6 11.3 0.15 0.91 0.69 100 1003.9
20260506193900 13 155 1.6 11.3 0.15 0.91 0.69 100 1003.9
20260506193758 13 152 1.6 11.3 0.15 0.91 0.69 100 1003.9
20260506193658 13 148 1.6 11.3 0.15 0.91 0.69 100 1004.0
20260506193558 13 167 1.6 8.0 0.15 0.91 0.69 100 1004.0
20260506193350 13 161 1.6 11.3 0.15 0.89 0.66 100 1004.0
20260506193247 13 171 1.6 11.3 0.15 0.89 0.66 100 1004.0
20260506193148 13 177 1.6 11.3 0.15 0.89 0.66 100 1004.0
20260506193047 13 181 1.6 11.3 0.15 0.89 0.66 100 1004.0
20260506192847 13 149 1.6 11.3 0.15 0.89 0.66 100 1004.1
20260506192746 13 161 1.6 11.3 0.15 0.89 0.66 100 1004.0
20260506192642 13 144 1.6 11.3 0.15 0.89 0.66 100 1004.0
20260506192544 13 138 1.6 11.3 0.18 0.89 0.66 100 1004.1
20260506192337 13 139 3.2 17.7 0.18 0.89 0.66 100 1004.1
20260506192237 13 141 3.2 17.7 0.18 0.89 0.66 100 1004.1
20260506192137 13 186 3.2 17.7 0.18 0.89 0.66 100 1004.1
20260506192101 13 162 3.2 17.7 0.18 0.89 0.66 100 1004.1
20260506192039 13 163 3.2 17.7 0.20 0.89 0.66 100 1004.2
20260506191821 13 140 3.2 17.7 0.18 0.86 0.66 100 1004.2
20260506191721 13 158 3.2 17.7 0.18 0.86 0.64 100 1004.1
20260506191622 13 173 3.2 17.7 0.18 0.86 0.64 100 1004.1
20260506191520 13 155 3.2 17.7 0.18 0.86 0.64 100 1004.2
20260506191422 13 173 3.2 17.7 0.18 0.86 0.64 100 1004.2
20260506191317 13 142 3.2 12.9 0.20 0.86 0.64 100 1004.2
20260506191216 13 137 3.2 12.9 0.20 0.86 0.64 100 1004.2
20260506191117 13 130 3.2 12.9 0.20 0.86 0.64 100 1004.2
20260506191017 13 123 3.2 12.9 0.20 0.86 0.64 100 1004.2
20260506190915 13 140 3.2 12.9 0.20 0.86 0.64 100 1004.2
20260506190809 13 138 3.2 12.9 0.23 0.86 0.64 100 1004.2
20260506190709 13 101 4.8 12.9 0.23 0.86 0.64 100 1004.2
20260506190610 13 154 4.8 12.9 0.23 0.86 0.64 100 1004.2
20260506190509 13 136 3.2 11.3 0.20 0.84 0.61 100 1004.2
20260506190410 13 126 3.2 11.3 0.20 0.84 0.61 100 1004.2
20260506190300 13 129 3.2 11.3 0.23 0.84 0.61 100 1004.2
20260506190202 13 189 3.2 11.3 0.23 0.84 0.61 100 1004.2
20260506190105 13 131 3.2 11.3 0.23 0.84 0.61 100 1004.2
20260506190042 13 161 3.2 11.3 0.25 0.84 0.61 100 1004.2
20260506185900 13 138 3.2 11.3 0.25 0.84 0.61 100 1004.2
20260506185752 13 150 3.2 11.3 0.25 0.84 0.61 100 1004.2
20260506185654 13 142 3.2 14.5 0.25 0.84 0.61 100 1004.2
20260506185554 13 132 3.2 14.5 0.25 0.84 0.61 100 1004.3
20260506185453 13 163 4.8 14.5 0.25 0.81 0.58 100 1004.2
20260506185354 13 125 4.8 14.5 0.25 0.81 0.58 100 1004.2
20260506185250 13 113 4.8 16.1 0.25 0.81 0.58 100 1004.4
20260506185147 13 177 4.8 16.1 0.25 0.81 0.58 100 1004.3
20260506185048 13 142 4.8 16.1 0.25 0.81 0.58 100 1004.4
20260506184946 13 150 4.8 16.1 0.25 0.81 0.58 100 1004.4
20260506184848 13 148 4.8 16.1 0.23 0.79 0.56 100 1004.3
20260506184734 13 140 4.8 16.1 0.25 0.79 0.56 100 1004.4
20260506184632 13 180 4.8 16.1 0.25 0.79 0.56 100 1004.2
20260506184534 13 163 6.4 16.1 0.25 0.79 0.56 100 1004.3
20260506184230 13 151 4.8 16.1 0.25 0.76 0.53 100 1004.2
20260506184126 13 140 4.8 16.1 0.25 0.76 0.53 100 1004.2
20260506184027 13 135 4.8 12.9 0.25 0.76 0.53 100 1004.2
20260506183928 13 153 4.8 12.9 0.25 0.76 0.53 100 1004.3
20260506183828 13 130 4.8 12.9 0.25 0.76 0.53 100 1004.3
20260506183721 13 150 4.8 12.9 0.28 0.76 0.53 100 1004.2
20260506183622 13 174 4.8 12.9 0.28 0.76 0.53 100 1004.3
20260506183522 13 205 3.2 12.9 0.28 0.76 0.53 100 1004.2
20260506183420 13 147 3.2 12.9 0.25 0.74 0.51 100 1004.3
20260506183321 13 161 3.2 12.9 0.25 0.74 0.51 100 1004.4
20260506183212 13 165 3.2 12.9 0.25 0.74 0.51 100 1004.3
20260506183110 13 172 3.2 12.9 0.25 0.74 0.51 100 1004.5
20260506183012 13 152 1.6 9.7 0.28 0.74 0.51 100 1004.5
20260506182912 13 139 1.6 9.7 0.28 0.74 0.51 100 1004.5
20260506182826 13 154 1.6 9.7 0.28 0.74 0.51 100 1004.5
20260506182803 13 142 1.6 9.7 0.28 0.74 0.51 100 1004.5
20260506182606 13 131 1.6 9.7 0.28 0.74 0.51 100 1004.5
20260506182542 13 135 1.6 9.7 0.25 0.71 0.48 100 1004.5
20260506182405 13 157 1.6 12.9 0.28 0.71 0.48 100 1004.5
20260506182307 13 165 1.6 12.9 0.28 0.71 0.48 100 1004.5
20260506182201 13 164 1.6 12.9 0.28 0.71 0.48 100 1004.6
20260506182102 13 138 1.6 12.9 0.28 0.71 0.48 100 1004.5
20260506182000 13 177 1.6 12.9 0.25 0.69 0.48 100 1004.6
20260506181901 13 133 1.6 12.9 0.25 0.69 0.46 100 1004.6
20260506181800 13 133 1.6 12.9 0.25 0.69 0.46 100 1004.6
20260506181645 13 145 3.2 12.9 0.25 0.69 0.46 100 1004.7
20260506181555 13 157 1.6 12.9 0.25 0.69 0.46 100 1004.7
20260506181534 13 186 1.6 12.9 0.28 0.69 0.46 100 1004.7
20260506181345 13 138 1.6 9.7 0.25 0.66 0.43 100 1004.7
20260506181246 13 140 1.6 8.0 0.25 0.66 0.43 100 1004.8
20260506181140 13 154 1.6 8.0 0.25 0.66 0.43 100 1004.8
20260506181040 13 135 1.6 11.3 0.25 0.66 0.43 100 1004.8
20260506180938 13 133 1.6 11.3 0.28 0.66 0.43 100 1004.8
20260506180840 13 159 1.6 11.3 0.25 0.64 0.43 100 1004.8
20260506180739 13 167 1.6 11.3 0.25 0.64 0.41 100 1004.9
20260506180640 13 185 1.6 11.3 0.25 0.64 0.41 100 1004.9
20260506180538 13 172 1.6 11.3 0.25 0.64 0.41 100 1004.9
20260506180435 13 167 1.6 11.3 0.25 0.64 0.41 100 1004.9
20260506180336 13 161 1.6 11.3 0.23 0.61 0.41 100 1004.9
20260506180234 13 138 1.6 11.3 0.25 0.61 0.38 99 1004.8
20260506180122 13 143 1.6 11.3 0.25 0.61 0.38 99 1004.9
20260506180022 13 143 1.6 11.3 0.23 0.58 0.38 99 1005.0
20260506175924 13 143 1.6 11.3 0.23 0.58 0.36 99 1005.0
20260506175824 13 133 1.6 11.3 0.23 0.58 0.36 99 1005.0
20260506175723 13 131 1.6 11.3 0.23 0.58 0.36 99 1005.0
20260506175617 13 131 1.6 11.3 0.23 0.58 0.36 99 1005.1
20260506175518 13 134 1.6 11.3 0.23 0.58 0.36 99 1005.0
20260506175317 13 167 1.6 9.7 0.20 0.56 0.33 99 1005.1
20260506175217 13 137 1.6 8.0 0.23 0.56 0.33 99 1005.0
20260506175112 13 177 1.6 8.0 0.23 0.56 0.33 99 1005.0
20260506175012 13 178 1.6 8.0 0.23 0.56 0.33 99 1005.0
20260506174910 13 178 1.6 8.0 0.23 0.56 0.33 99 1005.0
20260506174810 13 178 1.6 8.0 0.20 0.53 0.33 99 1005.0
20260506174711 13 163 1.6 8.0 0.20 0.53 0.30 99 1005.1
20260506174603 13 163 0.0 8.0 0.20 0.53 0.30 99 1005.1
20260506174504 13 177 0.0 6.4 0.20 0.53 0.30 99 1005.0
20260506174403 13 177 0.0 6.4 0.20 0.53 0.30 99 1005.0
20260506174303 13 178 0.0 6.4 0.18 0.51 0.30 99 1005.3
20260506174205 13 178 0.0 6.4 0.20 0.51 0.28 99 1005.1
20260506174100 13 178 0.0 6.4 0.20 0.51 0.28 99 1005.1
20260506174001 13 178 0.0 6.4 0.20 0.51 0.28 99 1005.1
20260506173900 13 178 0.0 6.4 0.20 0.51 0.28 99 1005.1
20260506173802 13 178 0.0 0.0 0.20 0.51 0.28 99 1005.1
20260506173700 13 178 0.0 0.0 0.18 0.48 0.28 99 1005.1
20260506173601 13 178 0.0 0.0 0.18 0.48 0.25 99 1005.3
20260506173500 13 178 0.0 0.0 0.18 0.48 0.25 99 1005.1
20260506173402 13 178 0.0 0.0 0.18 0.48 0.25 99 1005.1
20260506173301 13 178 0.0 0.0 0.18 0.48 0.25 99 1005.1
20260506173201 13 178 0.0 0.0 0.18 0.48 0.25 99 1005.1
20260506173100 13 178 0.0 0.0 0.15 0.46 0.25 99 1005.1
20260506173000 13 178 0.0 0.0 0.15 0.46 0.23 99 1005.1
20260506172858 13 178 0.0 0.0 0.15 0.46 0.23 99 1005.3
20260506172758 13 178 0.0 0.0 0.15 0.46 0.23 99 1005.3
20260506172656 13 178 0.0 0.0 0.15 0.46 0.23 99 1005.3
20260506172554 13 178 0.0 0.0 0.15 0.46 0.23 98 1005.3
20260506172454 13 178 0.0 0.0 0.13 0.43 0.23 99 1005.4
20260506172352 13 178 0.0 0.0 0.15 0.43 0.20 98 1005.4
20260506172252 13 178 0.0 0.0 0.15 0.43 0.20 98 1005.5
20260506172151 13 178 0.0 0.0 0.15 0.43 0.20 98 1005.5
20260506172050 13 178 0.0 0.0 0.15 0.43 0.20 98 1005.5
20260506172021 13 178 0.0 0.0 0.15 0.43 0.20 98 1005.5
20260506171842 13 178 0.0 0.0 0.15 0.43 0.20 98 1005.5
20260506171741 13 178 0.0 0.0 0.15 0.43 0.20 98 1005.5
20260506171640 13 178 0.0 0.0 0.15 0.43 0.20 98 1005.5
20260506171538 13 178 0.0 0.0 0.15 0.43 0.20 98 1005.5
20260506171437 13 178 0.0 0.0 0.13 0.41 0.20 98 1005.6
20260506171336 13 178 0.0 0.0 0.13 0.41 0.18 98 1005.5
20260506171235 13 178 0.0 0.0 0.13 0.41 0.18 98 1005.5
20260506171134 13 178 0.0 0.0 0.13 0.41 0.18 98 1005.6
20260506171032 13 178 0.0 0.0 0.13 0.41 0.18 98 1005.6
20260506170934 13 178 0.0 0.0 0.10 0.38 0.18 98 1005.6
20260506170833 13 178 0.0 0.0 0.10 0.38 0.15 98 1005.6
20260506170733 13 178 0.0 0.0 0.10 0.38 0.15 98 1005.6
20260506170633 13 178 0.0 0.0 0.10 0.38 0.15 98 1005.6
20260506170531 13 178 0.0 0.0 0.10 0.38 0.15 98 1005.6
20260506170430 13 178 0.0 0.0 0.10 0.38 0.15 98 1005.6
20260506170330 13 178 0.0 0.0 0.10 0.38 0.15 98 1005.6
20260506170232 13 178 0.0 0.0 0.10 0.36 0.15 98 1005.6
20260506170131 13 178 0.0 0.0 0.10 0.36 0.13 98 1005.6
20260506170030 13 178 0.0 0.0 0.10 0.36 0.13 98 1005.6
20260506165928 13 178 0.0 0.0 0.10 0.36 0.13 98 1005.6
20260506165830 13 178 0.0 0.0 0.10 0.36 0.13 98 1005.7
20260506165730 13 178 0.0 0.0 0.10 0.36 0.13 98 1005.6
20260506165629 13 178 0.0 0.0 0.10 0.36 0.13 98 1005.6
20260506165540 13 178 0.0 0.0 0.10 0.36 0.13 98 1005.5
20260506165519 13 178 0.0 0.0 0.10 0.36 0.13 97 1005.5
20260506165326 13 178 0.0 0.0 0.10 0.36 0.13 98 1005.5
20260506165223 13 178 0.0 0.0 0.08 0.33 0.13 98 1005.5
20260506165120 13 178 0.0 0.0 0.08 0.33 0.13 98 1005.6
20260506165038 13 178 0.0 0.0 0.08 0.33 0.10 98 1005.6
20260506165018 13 178 0.0 0.0 0.08 0.33 0.10 98 1005.6
20260506164820 13 178 0.0 0.0 0.08 0.33 0.10 97 1005.6
20260506164717 13 178 0.0 0.0 0.08 0.33 0.10 97 1005.6
20260506164610 13 178 0.0 0.0 0.08 0.33 0.10 97 1005.6
20260506164511 13 178 0.0 0.0 0.08 0.33 0.10 97 1005.6
20260506164308 13 178 0.0 0.0 0.08 0.33 0.10 97 1005.7
20260506164210 13 178 0.0 0.0 0.05 0.30 0.08 98 1005.7
20260506164110 13 178 0.0 0.0 0.05 0.30 0.08 97 1005.7
20260506164033 13 178 0.0 0.0 0.05 0.30 0.08 97 1005.7
20260506164013 13 178 0.0 0.0 0.05 0.30 0.08 97 1005.7
20260506163809 13 178 0.0 0.0 0.05 0.30 0.08 97 1005.7
20260506163710 13 178 0.0 0.0 0.05 0.30 0.08 97 1005.7
20260506163609 13 178 0.0 0.0 0.05 0.30 0.08 97 1005.7
20260506163507 13 178 0.0 0.0 0.08 0.30 0.08 97 1005.7
20260506163406 13 178 0.0 0.0 0.08 0.30 0.08 98 1005.7
20260506163305 13 178 0.0 0.0 0.08 0.30 0.08 97 1005.7
20260506163205 13 178 0.0 0.0 0.08 0.30 0.08 97 1005.8
20260506163105 13 178 0.0 0.0 0.08 0.30 0.08 97 1005.8
20260506163029 13 178 0.0 0.0 0.08 0.30 0.08 97 1005.8
20260506162905 13 178 0.0 0.0 0.08 0.30 0.08 97 1005.8
20260506162802 13 178 0.0 0.0 0.08 0.30 0.08 97 1005.8
20260506162704 13 178 0.0 0.0 0.08 0.30 0.08 97 1005.8
20260506162601 13 178 0.0 0.0 0.08 0.30 0.08 97 1005.8
20260506162459 13 178 0.0 0.0 0.08 0.30 0.08 97 1005.8
20260506162359 13 178 0.0 0.0 0.05 0.28 0.08 97 1005.8
20260506162256 13 178 0.0 0.0 0.05 0.28 0.05 97 1005.8
20260506162158 13 178 0.0 0.0 0.05 0.28 0.05 96 1005.8
20260506162055 13 178 0.0 0.0 0.05 0.28 0.05 96 1005.8
20260506162018 13 178 0.0 0.0 0.05 0.28 0.05 97 1005.8
20260506161850 13 178 0.0 0.0 0.05 0.28 0.05 97 1005.9
20260506161747 13 178 0.0 0.0 0.05 0.28 0.05 96 1005.9
20260506161650 13 178 0.0 0.0 0.05 0.28 0.05 96 1005.9
20260506161549 13 178 0.0 0.0 0.05 0.28 0.05 97 1006.0
20260506161448 13 178 0.0 0.0 0.05 0.28 0.05 97 1006.0
20260506161347 13 178 0.0 0.0 0.05 0.28 0.05 97 1006.1
20260506161244 13 178 0.0 0.0 0.05 0.28 0.05 97 1006.1
20260506161144 13 178 0.0 0.0 0.05 0.28 0.05 97 1006.1
20260506161043 13 178 0.0 0.0 0.05 0.28 0.05 96 1006.1
20260506160942 13 178 0.0 0.0 0.05 0.28 0.05 96 1006.1
20260506160843 13 178 0.0 0.0 0.05 0.28 0.05 96 1006.2
20260506160744 13 178 0.0 0.0 0.05 0.28 0.05 96 1006.2
20260506160640 13 178 0.0 0.0 0.05 0.28 0.05 96 1006.3
20260506160540 13 178 0.0 0.0 0.05 0.28 0.05 96 1006.3
20260506160442 13 178 0.0 0.0 0.05 0.28 0.05 96 1006.2
20260506160339 13 178 0.0 0.0 0.05 0.28 0.05 96 1006.3
20260506160237 13 178 0.0 0.0 0.03 0.25 0.03 96 1006.4
20260506160136 13 178 0.0 0.0 0.03 0.25 0.03 96 1006.4
20260506160036 13 178 0.0 0.0 0.03 0.25 0.03 95 1006.4
20260506155935 13 178 0.0 0.0 0.03 0.25 0.03 95 1006.4
20260506155832 13 178 0.0 0.0 0.03 0.25 0.03 95 1006.5
20260506155734 13 178 0.0 0.0 0.03 0.25 0.03 95 1006.6
20260506155628 13 178 0.0 0.0 0.03 0.25 0.03 95 1006.6
20260506155530 13 178 0.0 0.0 0.03 0.25 0.03 95 1006.6
20260506155428 13 178 0.0 0.0 0.03 0.25 0.03 95 1006.6
20260506155328 13 178 0.0 0.0 0.03 0.25 0.03 95 1006.6
20260506155230 13 178 0.0 1.6 0.03 0.25 0.03 95 1006.6
20260506155129 13 178 0.0 1.6 0.03 0.25 0.03 95 1006.6
20260506155025 13 178 0.0 1.6 0.03 0.25 0.03 95 1006.7
20260506154926 13 178 0.0 1.6 0.03 0.25 0.03 94 1006.7
20260506154827 13 178 0.0 1.6 0.03 0.25 0.03 94 1006.7
20260506154727 13 178 0.0 3.2 0.03 0.25 0.03 95 1006.8
20260506154627 13 178 0.0 3.2 0.03 0.25 0.03 95 1006.8
20260506154527 13 178 0.0 3.2 0.03 0.25 0.03 94 1006.9
20260506154504 13 178 0.0 3.2 0.03 0.25 0.03 94 1006.9
20260506154318 13 178 0.0 3.2 0.03 0.25 0.03 94 1006.9
20260506154218 13 178 0.0 3.2 0.03 0.25 0.03 94 1006.9
20260506154119 13 178 0.0 3.2 0.03 0.25 0.03 94 1007.0
20260506154018 13 178 0.0 3.2 0.03 0.25 0.03 94 1006.9
20260506153911 13 178 0.0 3.2 0.03 0.25 0.03 94 1007.0
20260506153810 13 178 0.0 3.2 0.03 0.25 0.03 94 1007.0
20260506153710 13 178 0.0 0.0 0.03 0.25 0.03 94 1007.0
20260506153609 13 178 0.0 0.0 0.03 0.25 0.03 94 1007.0
20260506153510 13 178 0.0 0.0 0.00 0.23 0.03 93 1007.0
20260506153411 13 178 0.0 0.0 0.00 0.23 0.00 93 1006.9
20260506153312 13 178 0.0 0.0 0.00 0.23 0.00 93 1006.9
20260506153208 13 178 0.0 0.0 0.00 0.23 0.00 93 1006.9
20260506153106 13 178 0.0 0.0 0.00 0.23 0.00 93 1006.9
20260506153006 13 178 0.0 0.0 0.00 0.23 0.00 92 1006.9
20260506152906 13 178 0.0 1.6 0.00 0.23 0.00 92 1006.9
20260506152806 13 178 0.0 1.6 0.00 0.23 0.00 92 1006.9
20260506152706 13 178 0.0 1.6 0.00 0.23 0.00 92 1006.9
20260506152608 13 178 0.0 1.6 0.00 0.23 0.00 92 1006.9
20260506152502 13 178 0.0 1.6 0.00 0.23 0.00 92 1006.9
20260506152402 13 178 0.0 1.6 0.00 0.23 0.00 92 1007.0
20260506152305 13 178 0.0 1.6 0.00 0.23 0.00 92 1007.0
20260506152202 13 178 0.0 1.6 0.00 0.23 0.00 92 1007.0
20260506152104 13 178 0.0 1.6 0.00 0.23 0.00 91 1006.9
20260506152003 13 178 0.0 1.6 0.00 0.23 0.00 91 1006.9
20260506151902 13 178 0.0 1.6 0.00 0.23 0.00 92 1006.9
20260506151804 13 178 0.0 1.6 0.00 0.23 0.00 91 1006.9
20260506151703 13 178 0.0 1.6 0.00 0.23 0.00 91 1006.8
20260506151602 13 178 0.0 1.6 0.00 0.23 0.00 91 1006.8
20260506151502 13 178 0.0 1.6 0.00 0.23 0.00 91 1006.8
20260506151404 13 178 0.0 1.6 0.00 0.23 0.00 91 1006.8
20260506151302 13 178 0.0 1.6 0.00 0.23 0.00 90 1006.8
20260506151202 13 178 0.0 1.6 0.00 0.23 0.00 91 1006.8
20260506151103 13 178 0.0 0.0 0.00 0.23 0.00 91 1006.7
20260506151003 13 178 0.0 0.0 0.00 0.23 0.00 91 1006.8
20260506150902 13 178 0.0 0.0 0.00 0.23 0.00 90 1006.7
20260506150803 13 178 0.0 0.0 0.00 0.23 0.00 90 1006.7
20260506150702 13 178 0.0 0.0 0.00 0.23 0.00 90 1006.7
20260506150602 13 178 0.0 0.0 0.00 0.23 0.00 90 1006.8
20260506150503 13 178 0.0 0.0 0.00 0.23 0.00 90 1006.7
20260506150402 13 178 0.0 0.0 0.00 0.23 0.00 90 1006.8
20260506150304 13 178 0.0 0.0 0.00 0.23 0.00 90 1006.7
20260506150204 13 178 0.0 0.0 0.00 0.23 0.00 90 1006.8
20260506150004 13 178 0.0 0.0 0.00 0.23 0.00 90 1006.9
20260506145752 13 178 0.0 0.0 0.00 0.23 0.00 91 1006.9
20260506145652 13 178 0.0 0.0 0.00 0.23 0.00 90 1006.9
20260506145550 13 178 0.0 0.0 0.00 0.23 0.00 90 1006.9
20260506145451 13 178 0.0 0.0 0.00 0.23 0.00 90 1006.9
20260506145252 13 178 0.0 0.0 0.00 0.23 0.00 90 1006.9
20260506145150 13 178 0.0 4.8 0.00 0.23 0.00 90 1006.9
20260506145051 13 178 0.0 4.8 0.00 0.23 0.00 90 1006.9
20260506144950 13 178 0.0 4.8 0.00 0.23 0.00 90 1006.9
20260506144749 13 178 0.0 4.8 0.00 0.23 0.00 90 1007.0
20260506144650 13 178 0.0 4.8 0.00 0.23 0.00 90 1007.0
20260506144551 13 178 0.0 4.8 0.00 0.23 0.00 90 1007.0
20260506144450 13 178 0.0 4.8 0.00 0.23 0.00 90 1006.9
20260506144251 13 178 0.0 4.8 0.00 0.23 0.00 89 1007.0
20260506144151 13 169 0.0 1.6 0.00 0.23 0.00 89 1007.0
20260506144051 13 203 0.0 0.0 0.00 0.23 0.00 89 1007.0
20260506143950 13 203 0.0 0.0 0.00 0.23 0.00 89 1007.0
20260506143750 13 200 0.0 0.0 0.00 0.23 0.00 89 1007.0
20260506143652 13 175 0.0 0.0 0.00 0.23 0.00 89 1006.9
20260506143551 13 175 0.0 0.0 0.00 0.23 0.00 89 1006.9
20260506143450 13 175 0.0 0.0 0.00 0.23 0.00 90 1006.9
20260506143252 13 175 0.0 1.6 0.00 0.23 0.00 89 1006.9
20260506143148 13 175 0.0 6.4 0.00 0.23 0.00 89 1007.0
20260506143050 13 175 0.0 6.4 0.00 0.23 0.00 89 1007.0
20260506143012 13 175 0.0 6.4 0.00 0.23 0.00 89 1007.0
20260506142950 13 180 0.0 6.4 0.00 0.23 0.00 90 1007.0
20260506142733 13 180 0.0 6.4 0.00 0.23 0.00 90 1007.0
20260506142630 13 180 0.0 6.4 0.00 0.23 0.00 89 1007.0
20260506142531 13 180 0.0 6.4 0.00 0.23 0.00 90 1006.9
20260506142430 13 177 1.6 6.4 0.00 0.23 0.00 89 1006.9
20260506142227 13 180 1.6 6.4 0.00 0.23 0.00 90 1006.9
20260506142128 13 146 1.6 4.8 0.00 0.23 0.00 90 1006.9
20260506142029 13 146 1.6 4.8 0.00 0.23 0.00 90 1006.9
20260506141927 13 146 1.6 4.8 0.00 0.23 0.00 90 1006.9
20260506141719 13 146 1.6 4.8 0.00 0.23 0.00 89 1006.9
20260506141618 13 147 1.6 4.8 0.00 0.23 0.00 89 1006.9
20260506141518 13 134 0.0 4.8 0.00 0.23 0.00 90 1006.9
20260506141420 13 128 0.0 4.8 0.00 0.23 0.00 90 1006.8
20260506141217 13 113 0.0 4.8 0.00 0.23 0.00 90 1006.9
20260506141109 13 62 0.0 3.2 0.00 0.23 0.00 90 1006.8
20260506141009 13 65 0.0 6.4 0.00 0.23 0.00 90 1006.9
20260506140910 13 156 0.0 6.4 0.00 0.23 0.00 90 1006.9
20260506140705 13 153 0.0 6.4 0.00 0.23 0.00 91 1006.9
20260506140602 13 153 0.0 6.4 0.00 0.23 0.00 90 1006.9
20260506140503 13 153 0.0 6.4 0.00 0.23 0.00 90 1006.9
20260506140402 13 153 0.0 6.4 0.00 0.23 0.00 90 1006.8
20260506140159 13 153 1.6 6.4 0.00 0.23 0.00 89 1006.8
20260506140057 13 153 0.0 6.4 0.00 0.23 0.00 89 1006.8
20260506135957 13 176 0.0 4.8 0.00 0.23 0.00 89 1006.8
20260506135856 13 257 0.0 4.8 0.00 0.23 0.00 90 1006.8
20260506135645 13 182 0.0 4.8 0.00 0.23 0.00 90 1006.8
20260506135547 13 175 0.0 4.8 0.00 0.23 0.00 91 1006.8
20260506135446 13 179 0.0 4.8 0.00 0.23 0.00 91 1006.8
20260506135344 13 179 0.0 6.4 0.00 0.23 0.00 91 1006.8
20260506135141 13 185 0.0 6.4 0.00 0.23 0.00 91 1006.8
20260506135040 13 188 0.0 6.4 0.00 0.23 0.00 91 1006.9
20260506134940 13 199 0.0 6.4 0.00 0.23 0.00 91 1006.9
20260506134839 13 199 0.0 6.4 0.00 0.23 0.00 91 1006.8
20260506134632 13 140 0.0 6.4 0.00 0.23 0.00 91 1006.9
20260506134532 13 140 0.0 6.4 0.00 0.23 0.00 91 1006.9
20260506134431 13 141 0.0 6.4 0.00 0.23 0.00 91 1006.9
20260506134330 13 151 0.0 4.8 0.00 0.23 0.00 91 1007.0
20260506134119 13 151 0.0 4.8 0.00 0.23 0.00 92 1007.0
20260506134021 13 151 1.6 8.0 0.00 0.23 0.00 91 1007.0
20260506133921 13 151 1.6 8.0 0.00 0.23 0.00 91 1007.0
20260506133819 13 151 1.6 8.0 0.00 0.23 0.00 91 1007.1
20260506133620 13 151 0.0 8.0 0.00 0.23 0.00 92 1007.1
20260506133518 13 151 0.0 8.0 0.00 0.23 0.00 92 1007.1
20260506133417 13 151 0.0 8.0 0.00 0.23 0.00 92 1007.1
20260506133316 13 151 0.0 8.0 0.00 0.23 0.00 92 1007.1
20260506133110 13 151 0.0 6.4 0.00 0.23 0.00 92 1007.1
20260506133007 13 151 0.0 3.2 0.00 0.23 0.00 92 1007.1
20260506132909 13 151 0.0 3.2 0.00 0.23 0.00 92 1007.2
20260506132832 13 151 0.0 3.2 0.00 0.23 0.00 92 1007.3
20260506132813 13 151 0.0 3.2 0.00 0.23 0.00 92 1007.3
20260506132558 13 151 0.0 3.2 0.00 0.23 0.00 91 1007.3
20260506132459 13 151 0.0 3.2 0.00 0.23 0.00 91 1007.2
20260506132358 13 151 0.0 3.2 0.00 0.23 0.00 92 1007.3
20260506132257 13 151 0.0 3.2 0.00 0.23 0.00 92 1007.3
20260506132055 13 151 0.0 3.2 0.00 0.23 0.00 91 1007.2
20260506131953 13 151 0.0 3.2 0.00 0.23 0.00 91 1007.3
20260506131853 13 151 0.0 3.2 0.00 0.23 0.00 91 1007.3
20260506131749 13 151 0.0 3.2 0.00 0.23 0.00 91 1007.2
20260506131549 13 151 0.0 1.6 0.00 0.23 0.00 92 1007.1
20260506131448 13 151 0.0 3.2 0.00 0.23 0.00 92 1007.1
20260506131344 13 151 0.0 3.2 0.00 0.23 0.00 92 1007.1
20260506131309 13 151 0.0 4.8 0.00 0.23 0.00 92 1007.2
20260506131247 13 151 0.0 4.8 0.00 0.23 0.00 91 1007.3
20260506131036 13 151 0.0 4.8 0.00 0.23 0.00 91 1007.3
20260506130935 13 151 0.0 4.8 0.00 0.23 0.00 92 1007.3
20260506130837 13 151 0.0 4.8 0.00 0.23 0.00 92 1007.3
20260506130735 13 151 0.0 4.8 0.00 0.23 0.00 92 1007.1
20260506130531 13 151 0.0 4.8 0.00 0.23 0.00 92 1007.2
20260506130431 13 151 0.0 4.8 0.00 0.23 0.00 92 1007.3
20260506130328 13 151 0.0 6.4 0.00 0.23 0.00 92 1007.3
20260506130025 13 145 0.0 6.4 0.00 0.23 0.00 91 1007.1
20260506125958 13 145 0.0 6.4 0.00 0.23 0.00 92 1007.2
20260506125822 12 145 0.0 6.4 0.00 0.23 0.00 92 1007.2
20260506125745 12 145 0.0 6.4 0.00 0.23 0.00 92 1007.2
20260506125724 12 145 1.6 6.4 0.00 0.23 0.00 92 1007.3
20260506125506 12 143 1.6 6.4 0.00 0.23 0.00 92 1007.3
20260506125405 12 143 1.6 6.4 0.00 0.23 0.00 92 1007.3
20260506125306 12 143 1.6 6.4 0.00 0.23 0.00 92 1007.3
20260506125206 12 143 1.6 6.4 0.00 0.23 0.00 91 1007.2
20260506125008 12 146 1.6 6.4 0.00 0.23 0.00 91 1007.2
20260506124905 12 146 0.0 6.4 0.00 0.23 0.00 91 1007.2
20260506124803 12 147 0.0 6.4 0.00 0.23 0.00 91 1007.2
20260506124701 12 146 0.0 6.4 0.00 0.23 0.00 91 1007.1
20260506124459 12 155 0.0 4.8 0.00 0.23 0.00 91 1007.2
20260506124358 12 155 0.0 8.0 0.00 0.23 0.00 91 1007.2
20260506124257 12 154 1.6 8.0 0.00 0.23 0.00 91 1007.2
20260506124157 12 154 1.6 8.0 0.00 0.23 0.00 91 1007.2
20260506123945 12 154 1.6 8.0 0.00 0.23 0.00 91 1007.2
20260506123847 12 154 1.6 8.0 0.00 0.23 0.00 91 1007.2
20260506123746 12 154 1.6 8.0 0.00 0.23 0.00 91 1007.1
20260506123647 12 154 1.6 8.0 0.00 0.23 0.00 91 1007.1
20260506123440 12 154 1.6 11.3 0.00 0.23 0.00 91 1007.1
20260506123337 12 148 1.6 11.3 0.00 0.23 0.00 91 1007.1
20260506123239 12 173 1.6 11.3 0.00 0.23 0.00 91 1007.1
20260506123138 12 162 1.6 11.3 0.00 0.23 0.00 91 1007.1
20260506122933 12 162 1.6 11.3 0.00 0.23 0.00 91 1007.0
20260506122831 12 162 1.6 11.3 0.00 0.23 0.00 91 1007.0
20260506122733 12 162 1.6 11.3 0.00 0.23 0.00 91 1007.0
20260506122657 12 162 1.6 11.3 0.00 0.23 0.00 91 1007.0
20260506122636 12 157 1.6 6.4 0.00 0.23 0.00 91 1007.0
20260506122421 12 157 1.6 8.0 0.00 0.23 0.00 91 1006.9
20260506122318 12 157 1.6 8.0 0.00 0.23 0.00 90 1007.0
20260506122219 12 159 1.6 8.0 0.00 0.23 0.00 91 1007.1
20260506122143 12 145 1.6 8.0 0.00 0.23 0.00 90 1007.2
20260506122123 12 157 1.6 8.0 0.00 0.23 0.00 91 1007.3
20260506121911 12 142 1.6 8.0 0.00 0.23 0.00 91 1007.3
20260506121811 12 153 1.6 8.0 0.00 0.23 0.00 90 1007.2
20260506121712 12 157 1.6 8.0 0.00 0.23 0.00 90 1007.2
20260506121613 12 136 1.6 8.0 0.00 0.23 0.00 91 1007.3
20260506121410 12 136 0.0 8.0 0.00 0.23 0.00 91 1007.3
20260506121305 13 139 0.0 8.0 0.00 0.23 0.00 91 1007.3
20260506121207 13 148 0.0 8.0 0.00 0.23 0.00 91 1007.3
20260506121106 13 148 0.0 8.0 0.00 0.23 0.00 91 1007.3
20260506120859 13 147 0.0 8.0 0.00 0.23 0.00 91 1007.3
20260506120756 13 147 1.6 8.0 0.00 0.23 0.00 91 1007.4
20260506120655 13 147 1.6 8.0 0.00 0.23 0.00 91 1007.4
20260506120557 13 149 1.6 8.0 0.00 0.23 0.00 91 1007.4
20260506120352 13 155 1.6 6.4 0.00 0.23 0.00 91 1007.4
20260506120251 13 155 1.6 6.4 0.00 0.23 0.00 91 1007.5
20260506120150 13 155 1.6 6.4 0.00 0.23 0.00 91 1007.4
20260506120050 13 155 1.6 6.4 0.00 0.23 0.00 91 1007.4
20260506115848 13 150 0.0 6.4 0.00 0.23 0.00 91 1007.4
20260506115748 13 159 0.0 6.4 0.00 0.23 0.00 92 1007.4
20260506115648 13 137 0.0 4.8 0.00 0.23 0.00 92 1007.4
20260506115547 13 142 0.0 4.8 0.00 0.23 0.00 92 1007.4
20260506115334 12 142 0.0 8.0 0.00 0.23 0.00 92 1007.4
20260506115234 12 142 0.0 8.0 0.00 0.23 0.00 93 1007.4
20260506115133 12 139 0.0 8.0 0.00 0.23 0.00 92 1007.4
20260506115031 12 139 1.6 8.0 0.00 0.23 0.00 92 1007.4
20260506114826 12 139 1.6 8.0 0.00 0.23 0.00 92 1007.4
20260506114723 12 139 1.6 8.0 0.00 0.23 0.00 92 1007.5
20260506114624 12 139 1.6 8.0 0.00 0.23 0.00 92 1007.5
20260506114525 12 134 1.6 8.0 0.00 0.23 0.00 92 1007.5
20260506114330 12 161 1.6 8.0 0.00 0.23 0.00 92 1007.4
20260506114218 12 159 1.6 8.0 0.00 0.23 0.00 91 1007.5
20260506114118 12 180 1.6 8.0 0.00 0.23 0.00 92 1007.5
20260506114045 12 178 1.6 8.0 0.00 0.23 0.00 92 1007.5
20260506114023 12 159 1.6 8.0 0.00 0.23 0.00 93 1007.5
20260506113811 12 162 1.6 8.0 0.00 0.23 0.00 93 1007.5
20260506113708 12 161 1.6 8.0 0.00 0.23 0.00 93 1007.5
20260506113609 12 140 1.6 11.3 0.00 0.23 0.00 93 1007.5
20260506113507 12 134 1.6 11.3 0.00 0.23 0.00 93 1007.5
20260506113302 12 164 1.6 11.3 0.00 0.23 0.00 93 1007.4
20260506113202 12 169 1.6 11.3 0.00 0.23 0.00 93 1007.3
20260506113101 12 169 1.6 11.3 0.00 0.23 0.00 93 1007.3
20260506113002 12 176 1.6 11.3 0.00 0.23 0.00 93 1007.3
20260506112758 12 182 1.6 11.3 0.00 0.23 0.00 94 1007.4
20260506112655 12 182 1.6 11.3 0.00 0.23 0.00 94 1007.4
20260506112557 12 190 1.6 11.3 0.00 0.23 0.00 94 1007.4
20260506112457 12 194 1.6 11.3 0.00 0.23 0.00 94 1007.4
20260506112246 12 153 1.6 11.3 0.00 0.23 0.00 94 1007.4
20260506112147 12 144 1.6 11.3 0.00 0.23 0.00 94 1007.4
20260506112046 12 130 1.6 11.3 0.00 0.23 0.00 94 1007.4
20260506111944 12 163 1.6 11.3 0.00 0.23 0.00 94 1007.4
20260506111737 12 155 1.6 11.3 0.00 0.23 0.00 94 1007.4
20260506111637 12 108 1.6 9.7 0.00 0.23 0.00 95 1007.4
20260506111535 12 155 3.2 9.7 0.00 0.23 0.00 95 1007.5
20260506111436 12 157 3.2 9.7 0.00 0.23 0.00 95 1007.5
20260506111231 12 157 3.2 9.7 0.00 0.23 0.00 95 1007.4
20260506111129 12 186 1.6 9.7 0.00 0.23 0.00 95 1007.4
20260506111030 12 177 1.6 9.7 0.00 0.23 0.00 95 1007.3
20260506110929 12 176 1.6 9.7 0.00 0.23 0.00 96 1007.4
20260506110720 12 186 1.6 9.7 0.00 0.23 0.00 96 1007.4
20260506110621 12 190 3.2 9.7 0.00 0.23 0.00 96 1007.4
20260506110521 12 175 3.2 9.7 0.00 0.23 0.00 96 1007.4
20260506110420 12 160 3.2 9.7 0.00 0.23 0.00 97 1007.4
20260506110213 12 148 1.6 9.7 0.00 0.23 0.00 97 1007.3
20260506110115 12 148 1.6 9.7 0.00 0.23 0.00 97 1007.3
20260506110013 12 148 1.6 9.7 0.00 0.23 0.00 97 1007.3
20260506105914 12 166 1.6 9.7 0.00 0.23 0.00 98 1007.3
20260506105711 11 178 0.0 9.7 0.00 0.23 0.00 98 1007.4
20260506105608 11 123 0.0 8.0 0.00 0.23 0.00 98 1007.5
20260506105508 11 133 0.0 3.2 0.00 0.23 0.00 99 1007.5
20260506105433 11 126 0.0 0.0 0.00 0.23 0.00 98 1007.5
20260506105413 11 126 0.0 0.0 0.00 0.23 0.00 98 1007.4
20260506105157 11 126 0.0 0.0 0.00 0.23 0.00 98 1007.4
20260506105059 11 126 0.0 0.0 0.00 0.23 0.00 98 1007.4
20260506104957 11 126 0.0 0.0 0.00 0.23 0.00 98 1007.4
20260506104920 11 126 0.0 0.0 0.00 0.23 0.00 98 1007.4
20260506104859 11 126 0.0 0.0 0.00 0.23 0.00 98 1007.5
20260506104655 11 126 0.0 0.0 0.00 0.23 0.00 98 1007.5
20260506104551 11 126 0.0 0.0 0.00 0.23 0.00 98 1007.5
20260506104453 11 126 0.0 0.0 0.00 0.23 0.00 98 1007.5
20260506104349 11 126 0.0 0.0 0.00 0.23 0.00 98 1007.5
20260506104148 11 126 0.0 0.0 0.00 0.23 0.00 98 1007.5
20260506104046 11 126 0.0 0.0 0.00 0.23 0.00 98 1007.5
20260506103946 11 126 0.0 0.0 0.00 0.23 0.00 98 1007.4
20260506103844 11 126 0.0 0.0 0.00 0.23 0.00 98 1007.4
20260506103635 11 126 0.0 0.0 0.00 0.23 0.00 98 1007.4
20260506103535 11 126 0.0 0.0 0.00 0.23 0.00 98 1007.4
20260506103437 11 126 0.0 0.0 0.00 0.23 0.00 98 1007.4
20260506103335 11 126 0.0 0.0 0.00 0.23 0.00 99 1007.4
20260506103129 11 126 0.0 0.0 0.00 0.23 0.00 99 1007.3
20260506103030 11 126 0.0 0.0 0.00 0.23 0.00 99 1007.3
20260506102930 11 126 0.0 0.0 0.00 0.23 0.00 99 1007.3
20260506102829 11 126 0.0 0.0 0.00 0.23 0.00 98 1007.3
20260506102627 11 126 0.0 0.0 0.00 0.23 0.00 98 1007.2
20260506102523 11 126 0.0 0.0 0.00 0.23 0.00 98 1007.2
20260506102424 11 126 0.0 0.0 0.00 0.23 0.00 98 1007.2
20260506102322 11 126 0.0 0.0 0.00 0.23 0.00 98 1007.2
20260506102109 11 126 0.0 0.0 0.00 0.23 0.00 98 1007.2
20260506102011 11 126 0.0 0.0 0.00 0.23 0.00 98 1007.2
20260506101910 11 126 0.0 0.0 0.00 0.23 0.00 98 1007.3
20260506101807 11 126 0.0 0.0 0.00 0.23 0.00 98 1007.2
20260506101604 11 126 0.0 0.0 0.00 0.23 0.00 98 1007.3
20260506101503 11 126 0.0 0.0 0.00 0.23 0.00 98 1007.3
20260506101405 11 126 0.0 0.0 0.00 0.23 0.00 98 1007.3
20260506101301 11 126 0.0 0.0 0.00 0.23 0.00 98 1007.3
20260506101058 11 126 0.0 0.0 0.00 0.23 0.00 98 1007.2
20260506100959 11 126 0.0 0.0 0.00 0.23 0.00 98 1007.3
20260506100858 11 126 0.0 0.0 0.00 0.23 0.00 98 1007.2
20260506100756 11 126 0.0 0.0 0.00 0.23 0.00 98 1007.3
20260506100551 11 126 0.0 0.0 0.00 0.23 0.00 98 1007.3
20260506100452 11 126 0.0 0.0 0.00 0.23 0.00 98 1007.3
20260506100352 11 126 0.0 0.0 0.00 0.23 0.00 98 1007.3
20260506100250 11 126 0.0 0.0 0.00 0.23 0.00 98 1007.3
20260506100049 11 126 0.0 0.0 0.00 0.23 0.00 98 1007.3
20260506095947 11 126 0.0 0.0 0.00 0.23 0.00 98 1007.3
20260506095845 11 126 0.0 0.0 0.00 0.23 0.00 98 1007.3
20260506095744 11 126 0.0 0.0 0.00 0.23 0.00 98 1007.3
20260506095541 11 126 0.0 0.0 0.00 0.23 0.00 98 1007.2
20260506095441 11 126 0.0 0.0 0.00 0.23 0.00 98 1007.2
20260506095340 11 126 0.0 0.0 0.00 0.23 0.00 98 1007.2
20260506095239 11 126 0.0 0.0 0.00 0.23 0.00 97 1007.2
20260506095037 11 126 0.0 0.0 0.00 0.23 0.00 97 1007.2
20260506094933 11 126 0.0 0.0 0.00 0.23 0.00 97 1007.2
20260506094835 11 126 0.0 0.0 0.00 0.23 0.00 97 1007.2
20260506094731 11 126 0.0 0.0 0.00 0.23 0.00 97 1007.2
20260506094633 11 126 0.0 0.0 0.00 0.23 0.00 97 1007.3
20260506094529 11 126 0.0 0.0 0.00 0.23 0.00 97 1007.2
20260506094328 11 126 0.0 0.0 0.00 0.23 0.00 97 1007.2
20260506094227 11 126 0.0 0.0 0.00 0.23 0.00 98 1007.2
20260506094023 11 126 0.0 0.0 0.00 0.23 0.00 98 1007.3
20260506093923 11 126 0.0 0.0 0.00 0.23 0.00 98 1007.3
20260506093823 11 126 0.0 0.0 0.00 0.23 0.00 98 1007.2
20260506093719 11 126 0.0 0.0 0.00 0.23 0.00 98 1007.2
20260506093620 11 126 0.0 0.0 0.00 0.23 0.00 98 1007.2
20260506093519 11 126 0.0 0.0 0.00 0.23 0.00 98 1007.3
20260506093420 11 126 0.0 0.0 0.00 0.23 0.00 98 1007.3
20260506093321 11 126 0.0 0.0 0.00 0.23 0.00 97 1007.4
20260506093217 11 126 0.0 0.0 0.00 0.23 0.00 97 1007.3
20260506093119 11 126 0.0 0.0 0.00 0.23 0.00 97 1007.2
20260506093016 11 126 0.0 0.0 0.00 0.23 0.00 97 1007.2
20260506092914 11 126 0.0 0.0 0.00 0.23 0.00 97 1007.2
20260506092810 11 126 0.0 0.0 0.00 0.23 0.00 97 1007.2
20260506092709 11 126 0.0 0.0 0.00 0.23 0.00 97 1007.2
20260506092611 11 126 0.0 0.0 0.00 0.23 0.00 97 1007.1
20260506092511 11 126 0.0 0.0 0.00 0.23 0.00 97 1007.1
20260506092409 11 126 0.0 0.0 0.00 0.23 0.00 97 1007.2
20260506092309 11 126 0.0 0.0 0.00 0.23 0.00 97 1007.1
20260506092205 11 126 0.0 0.0 0.00 0.23 0.00 97 1007.2
20260506092107 11 126 0.0 1.6 0.00 0.23 0.00 97 1007.2
20260506092004 11 126 0.0 1.6 0.00 0.23 0.00 97 1007.3
20260506091903 11 126 0.0 1.6 0.00 0.23 0.00 97 1007.3
20260506091805 11 126 0.0 1.6 0.00 0.23 0.00 96 1007.3
20260506091705 11 126 0.0 1.6 0.00 0.23 0.00 96 1007.2
20260506091605 11 126 0.0 1.6 0.00 0.23 0.00 96 1007.2
20260506091502 11 126 0.0 1.6 0.00 0.23 0.00 96 1007.3
20260506091403 11 126 0.0 1.6 0.00 0.23 0.00 96 1007.3
20260506091301 11 126 0.0 1.6 0.00 0.23 0.00 96 1007.3
20260506091159 11 126 0.0 1.6 0.00 0.23 0.00 96 1007.3
20260506091057 11 126 0.0 0.0 0.00 0.23 0.00 97 1007.3
20260506090956 11 126 0.0 0.0 0.00 0.23 0.00 97 1007.2
20260506090857 11 126 0.0 0.0 0.00 0.23 0.00 96 1007.2
20260506090755 11 126 0.0 0.0 0.00 0.23 0.00 96 1007.2
20260506090651 11 126 0.0 0.0 0.00 0.23 0.00 96 1007.2
20260506090552 11 126 0.0 0.0 0.00 0.23 0.00 96 1007.3
20260506090451 11 126 0.0 0.0 0.00 0.23 0.00 96 1007.3
20260506090349 11 126 0.0 0.0 0.00 0.23 0.00 96 1007.3
20260506090249 11 126 0.0 0.0 0.00 0.23 0.00 96 1007.3
20260506090150 11 126 0.0 0.0 0.00 0.23 0.00 96 1007.3
20260506090049 11 126 0.0 0.0 0.00 0.23 0.00 95 1007.3
20260506085949 11 126 0.0 0.0 0.00 0.23 0.00 95 1007.3
20260506085847 11 126 0.0 0.0 0.00 0.23 0.00 95 1007.4
20260506085746 11 126 0.0 0.0 0.00 0.23 0.00 95 1007.3
20260506085645 11 126 0.0 0.0 0.00 0.23 0.00 95 1007.4
20260506085545 11 126 0.0 0.0 0.00 0.23 0.00 95 1007.4
20260506085443 11 126 0.0 0.0 0.00 0.23 0.00 95 1007.5
20260506085343 11 126 0.0 0.0 0.00 0.23 0.00 95 1007.5
20260506085240 11 126 0.0 0.0 0.00 0.23 0.00 95 1007.5
20260506085034 12 126 0.0 0.0 0.00 0.23 0.00 96 1007.5
20260506084931 12 126 0.0 0.0 0.00 0.23 0.00 95 1007.5
20260506084831 12 126 0.0 0.0 0.00 0.23 0.00 95 1007.5
20260506084730 12 126 0.0 0.0 0.00 0.23 0.00 95 1007.5
20260506084630 12 126 0.0 0.0 0.00 0.23 0.00 95 1007.5
20260506084529 12 126 0.0 0.0 0.00 0.23 0.00 95 1007.5
20260506084425 12 126 0.0 1.6 0.00 0.23 0.00 95 1007.4
20260506084326 12 126 0.0 1.6 0.00 0.23 0.00 95 1007.5
20260506084225 12 126 0.0 1.6 0.00 0.23 0.00 95 1007.5
20260506084129 12 126 0.0 1.6 0.00 0.23 0.00 96 1007.5
20260506084108 12 126 0.0 1.6 0.00 0.23 0.00 96 1007.5
20260506083920 12 126 0.0 1.6 0.00 0.23 0.00 96 1007.5
20260506083821 12 126 0.0 1.6 0.00 0.23 0.00 96 1007.5
20260506083720 12 126 0.0 1.6 0.00 0.23 0.00 96 1007.5
20260506083620 12 126 0.0 1.6 0.00 0.23 0.00 96 1007.4
20260506083519 12 126 0.0 0.0 0.00 0.23 0.00 96 1007.5
20260506083421 12 126 0.0 0.0 0.00 0.23 0.00 96 1007.4
20260506083321 12 126 0.0 0.0 0.00 0.23 0.00 96 1007.4
20260506083217 12 126 0.0 0.0 0.00 0.23 0.00 96 1007.4
20260506083117 12 126 0.0 0.0 0.00 0.23 0.00 96 1007.5
20260506083017 12 126 0.0 0.0 0.00 0.23 0.00 95 1007.5
20260506082918 12 126 0.0 0.0 0.00 0.23 0.00 95 1007.5
20260506082818 12 126 0.0 0.0 0.00 0.23 0.00 96 1007.5
20260506082717 12 126 0.0 0.0 0.00 0.23 0.00 96 1007.5
20260506082619 12 126 0.0 0.0 0.00 0.23 0.00 95 1007.5
20260506082517 12 126 0.0 0.0 0.00 0.23 0.00 95 1007.5
20260506082414 12 126 0.0 0.0 0.00 0.23 0.00 95 1007.6
20260506082315 12 126 0.0 0.0 0.00 0.23 0.00 95 1007.5
20260506082217 12 126 0.0 1.6 0.00 0.23 0.00 95 1007.5
20260506082110 12 126 0.0 1.6 0.00 0.23 0.00 95 1007.5
20260506082009 12 126 0.0 1.6 0.00 0.23 0.00 95 1007.4
20260506081910 12 126 0.0 4.8 0.00 0.23 0.00 95 1007.4
20260506081809 12 126 0.0 4.8 0.00 0.23 0.00 95 1007.4
20260506081709 12 126 0.0 4.8 0.00 0.23 0.00 95 1007.4
20260506081607 12 126 0.0 4.8 0.00 0.23 0.00 95 1007.4
20260506081508 12 126 0.0 4.8 0.00 0.23 0.00 95 1007.4
20260506081407 12 126 0.0 4.8 0.00 0.23 0.00 95 1007.4
20260506081308 12 126 0.0 4.8 0.00 0.23 0.00 95 1007.4
20260506081207 12 126 0.0 4.8 0.00 0.23 0.00 95 1007.3
20260506081107 12 126 0.0 4.8 0.00 0.23 0.00 94 1007.3
20260506081007 12 126 0.0 4.8 0.00 0.23 0.00 94 1007.4
20260506080907 12 126 0.0 0.0 0.00 0.23 0.00 94 1007.4
20260506080808 12 126 0.0 0.0 0.00 0.23 0.00 94 1007.5
20260506080707 12 126 0.0 0.0 0.00 0.23 0.00 94 1007.4
20260506080624 12 126 0.0 0.0 0.00 0.23 0.00 94 1007.4
20260506080603 12 126 0.0 0.0 0.00 0.23 0.00 94 1007.4
20260506080407 12 126 0.0 0.0 0.00 0.23 0.00 94 1007.4
20260506080400 12 126 0.0 0.0 0.00 0.23 0.00 94 1007.4
20260506080326 12 126 0.0 0.0 0.00 0.23 0.00 94 1007.4
20260506080207 12 126 0.0 0.0 0.00 0.23 0.00 94 1007.4
20260506080108 12 126 0.0 0.0 0.00 0.23 0.00 94 1007.4
20260506073359 12 126 0.0 3.2 0.00 0.23 0.00 94 1007.6
20260506073300 12 126 0.0 3.2 0.00 0.23 0.00 93 1007.6
20260506073159 12 126 0.0 3.2 0.00 0.23 0.00 94 1007.5
20260506073124 12 94 0.0 3.2 0.00 0.23 0.00 94 1007.5
20260506073101 12 94 0.0 0.0 0.00 0.23 0.00 95 1007.5
20260506072900 12 94 0.0 0.0 0.00 0.23 0.00 95 1007.5
20260506072759 12 94 0.0 0.0 0.00 0.23 0.00 95 1007.5
20260506072700 12 94 0.0 0.0 0.00 0.23 0.00 94 1007.5
20260506072559 12 94 0.0 0.0 0.00 0.23 0.00 94 1007.5
20260506072358 12 94 0.0 0.0 0.00 0.23 0.00 94 1007.5
20260506072301 12 94 0.0 0.0 0.00 0.23 0.00 94 1007.5
20260506072157 12 94 0.0 0.0 0.00 0.23 0.00 94 1007.5
20260506072055 12 94 0.0 0.0 0.00 0.23 0.00 94 1007.5
20260506071856 12 94 0.0 0.0 0.00 0.23 0.00 94 1007.4
20260506071755 12 94 0.0 0.0 0.00 0.23 0.00 94 1007.5
20260506071655 12 94 0.0 0.0 0.00 0.23 0.00 94 1007.4
20260506071556 12 94 0.0 0.0 0.00 0.23 0.00 94 1007.4
20260506071451 12 94 0.0 0.0 0.00 0.23 0.00 94 1007.4
20260506071351 12 94 0.0 0.0 0.00 0.23 0.00 94 1007.4
20260506071252 12 94 0.0 0.0 0.00 0.23 0.00 94 1007.4
20260506071152 12 94 0.0 0.0 0.00 0.23 0.00 94 1007.3
20260506071117 12 94 0.0 0.0 0.00 0.23 0.00 93 1007.4
20260506070952 12 94 0.0 0.0 0.00 0.23 0.00 93 1007.3
20260506070850 12 94 0.0 0.0 0.00 0.23 0.00 93 1007.3
20260506070752 12 94 0.0 0.0 0.00 0.23 0.00 93 1007.4
20260506070651 12 94 0.0 0.0 0.00 0.23 0.00 93 1007.3
20260506070552 12 94 0.0 0.0 0.00 0.23 0.00 93 1007.3
20260506070451 12 94 0.0 0.0 0.00 0.23 0.00 93 1007.3
20260506070350 12 94 0.0 1.6 0.00 0.23 0.00 93 1007.3
20260506070243 12 94 0.0 1.6 0.00 0.23 0.00 93 1007.2
20260506070143 12 94 0.0 1.6 0.00 0.23 0.00 93 1007.2
20260506062349 13 101 1.6 6.4 0.00 0.23 0.00 91 1007.2
20260506062250 13 101 1.6 6.4 0.00 0.23 0.00 91 1007.2
20260506062149 13 101 1.6 6.4 0.00 0.23 0.00 91 1007.2
20260506062050 13 101 1.6 6.4 0.00 0.23 0.00 91 1007.2
20260506061848 13 101 1.6 6.4 0.00 0.23 0.00 91 1007.3
20260506061747 13 100 1.6 4.8 0.00 0.23 0.00 91 1007.3
20260506061647 13 100 0.0 4.8 0.00 0.23 0.00 91 1007.2
20260506061606 13 103 0.0 4.8 0.00 0.23 0.00 91 1007.2
20260506061546 13 103 0.0 4.8 0.00 0.23 0.00 91 1007.2
20260506061344 13 103 0.0 4.8 0.00 0.23 0.00 91 1007.1
20260506061246 13 103 0.0 4.8 0.00 0.23 0.00 91 1007.1
20260506061143 13 103 0.0 4.8 0.00 0.23 0.00 91 1007.0
20260506061103 13 103 0.0 4.8 0.00 0.23 0.00 91 1007.1
20260506061042 13 111 0.0 4.8 0.00 0.23 0.00 91 1007.1
20260506060838 13 91 0.0 0.0 0.00 0.23 0.00 91 1007.1
20260506060739 13 91 0.0 0.0 0.00 0.23 0.00 91 1007.1
20260506060638 13 91 0.0 4.8 0.00 0.23 0.00 91 1007.2
20260506060535 13 91 0.0 4.8 0.00 0.23 0.00 91 1007.1
20260506060429 13 91 0.0 4.8 0.00 0.23 0.00 92 1007.0
20260506060330 13 91 0.0 4.8 0.00 0.23 0.00 91 1007.0
20260506060229 13 90 0.0 4.8 0.00 0.23 0.00 92 1006.9
20260506060127 13 90 0.0 4.8 0.00 0.23 0.00 92 1006.9
20260506051331 13 101 0.0 0.0 0.00 0.23 0.00 93 1007.2
20260506051229 13 101 0.0 0.0 0.00 0.23 0.00 93 1007.2
20260506051129 13 101 0.0 0.0 0.00 0.23 0.00 93 1007.1
20260506051027 13 101 0.0 4.8 0.00 0.23 0.00 93 1007.1
20260506050926 13 101 0.0 4.8 0.00 0.23 0.00 93 1007.1
20260506050826 13 101 0.0 4.8 0.00 0.23 0.00 93 1007.1
20260506050724 13 101 0.0 4.8 0.00 0.23 0.00 93 1007.1
20260506050624 13 101 0.0 4.8 0.00 0.23 0.00 92 1007.2
20260506050521 13 101 0.0 4.8 0.00 0.23 0.00 92 1007.2
20260506050419 13 101 0.0 4.8 0.00 0.23 0.00 92 1007.2
20260506050320 13 101 0.0 4.8 0.00 0.23 0.00 92 1007.3
20260506050218 13 101 0.0 4.8 0.00 0.23 0.00 92 1007.3
20260506050110 13 101 0.0 4.8 0.00 0.23 0.00 92 1007.3
20260506045102 13 101 0.0 3.2 0.00 0.23 0.00 92 1007.1
20260506045037 13 101 0.0 0.0 0.00 0.23 0.00 91 1007.2
20260506044900 13 101 0.0 0.0 0.00 0.23 0.00 91 1007.2
20260506044758 13 101 0.0 0.0 0.00 0.23 0.00 92 1007.3
20260506044656 13 101 0.0 0.0 0.00 0.23 0.00 92 1007.2
20260506044556 13 101 0.0 0.0 0.00 0.23 0.00 92 1007.3
20260506044453 13 101 0.0 0.0 0.00 0.23 0.00 92 1007.2
20260506044354 13 101 0.0 0.0 0.00 0.23 0.00 92 1007.2
20260506044312 13 101 0.0 0.0 0.00 0.23 0.00 92 1007.1
20260506044252 13 101 0.0 0.0 0.00 0.23 0.00 92 1007.1
20260506044052 13 101 0.0 0.0 0.00 0.23 0.00 92 1007.1
20260506044032 13 101 0.0 0.0 0.00 0.23 0.00 92 1007.1
20260506043848 13 101 0.0 0.0 0.00 0.23 0.00 92 1007.1
20260506043746 13 101 0.0 0.0 0.00 0.23 0.00 92 1007.1
20260506043644 13 101 0.0 0.0 0.00 0.23 0.00 92 1007.1
20260506043544 13 101 0.0 0.0 0.00 0.23 0.00 92 1007.1
20260506043341 13 101 0.0 0.0 0.00 0.23 0.00 92 1007.2
20260506043239 13 101 0.0 0.0 0.00 0.23 0.00 92 1007.2
20260506043139 13 101 0.0 0.0 0.00 0.23 0.00 92 1007.3
20260506043048 13 101 0.0 0.0 0.00 0.23 0.00 92 1007.3
20260506043027 13 101 0.0 0.0 0.00 0.23 0.00 92 1007.3
20260506042837 13 101 0.0 0.0 0.00 0.23 0.00 92 1007.3
20260506042733 13 101 0.0 0.0 0.00 0.23 0.00 93 1007.3
20260506042634 13 101 0.0 0.0 0.00 0.23 0.00 93 1007.3
20260506042531 13 101 0.0 0.0 0.00 0.23 0.00 93 1007.3
20260506042330 13 101 0.0 0.0 0.00 0.23 0.00 94 1007.3
20260506042226 13 101 0.0 0.0 0.00 0.23 0.00 93 1007.3
20260506042126 13 101 0.0 0.0 0.00 0.23 0.00 94 1007.3
20260506042024 13 101 0.0 0.0 0.00 0.23 0.00 93 1007.3
20260506041824 13 101 0.0 0.0 0.00 0.23 0.00 94 1007.2
20260506041721 13 101 0.0 0.0 0.00 0.23 0.00 94 1007.2
20260506041629 13 101 0.0 0.0 0.00 0.23 0.00 94 1007.2
20260506041520 13 101 0.0 0.0 0.00 0.23 0.00 94 1007.1
20260506041317 13 101 0.0 0.0 0.00 0.23 0.00 94 1007.2
20260506041245 13 101 0.0 0.0 0.00 0.23 0.00 94 1007.2
20260506041114 13 101 0.0 0.0 0.00 0.23 0.00 94 1007.2
20260506041037 13 101 0.0 0.0 0.00 0.23 0.00 94 1007.2
20260506041016 13 101 0.0 0.0 0.00 0.23 0.00 93 1007.2
20260506040813 13 101 0.0 0.0 0.00 0.23 0.00 94 1007.2
20260506040713 13 101 0.0 0.0 0.00 0.23 0.00 94 1007.1
20260506040611 13 101 0.0 0.0 0.00 0.23 0.00 94 1007.1
20260506040533 13 101 0.0 0.0 0.00 0.23 0.00 94 1007.2
20260506040512 13 101 0.0 0.0 0.00 0.23 0.00 94 1007.2
20260506040312 13 101 0.0 0.0 0.00 0.23 0.00 93 1007.2
20260506040211 12 101 0.0 0.0 0.00 0.23 0.00 93 1007.2
20260506040112 12 101 0.0 0.0 0.00 0.23 0.00 94 1007.2
20260506040010 12 101 0.0 0.0 0.00 0.23 0.00 94 1007.2
20260506035911 12 101 0.0 0.0 0.00 0.23 0.23 93 1007.2
20260506035812 12 101 0.0 0.0 0.00 0.23 0.23 93 1007.3
20260506035712 12 101 0.0 0.0 0.00 0.23 0.23 93 1007.2
20260506035608 12 101 0.0 0.0 0.00 0.23 0.23 94 1007.2
20260506035506 12 101 0.0 0.0 0.00 0.23 0.23 94 1007.2
20260506035407 12 101 0.0 0.0 0.00 0.23 0.23 94 1007.2
20260506035306 12 101 0.0 0.0 0.00 0.23 0.23 94 1007.2
20260506035208 12 101 0.0 0.0 0.00 0.23 0.23 94 1007.2
20260506035106 12 101 0.0 0.0 0.00 0.23 0.23 94 1007.2
20260506035007 12 101 0.0 0.0 0.00 0.23 0.23 94 1007.2
20260506034906 12 101 0.0 0.0 0.00 0.23 0.23 94 1007.2
20260506034806 12 101 0.0 0.0 0.00 0.23 0.23 94 1007.3
20260506034708 12 101 0.0 0.0 0.00 0.23 0.23 94 1007.2
20260506034607 13 101 0.0 0.0 0.00 0.23 0.23 94 1007.3
20260506034506 12 101 0.0 0.0 0.00 0.23 0.23 94 1007.3
20260506034406 12 101 0.0 0.0 0.00 0.23 0.23 94 1007.3
20260506034307 13 101 0.0 0.0 0.00 0.23 0.23 94 1007.3
20260506034207 13 101 0.0 0.0 0.00 0.23 0.23 94 1007.3
20260506034106 13 101 0.0 0.0 0.00 0.23 0.23 94 1007.2
20260506034006 13 101 0.0 0.0 0.00 0.23 0.23 94 1007.2
20260506033906 13 101 0.0 0.0 0.00 0.23 0.23 94 1007.3
20260506033806 12 101 0.0 0.0 0.00 0.23 0.23 94 1007.3
20260506033708 13 101 0.0 0.0 0.00 0.23 0.23 94 1007.3
20260506033607 12 101 0.0 0.0 0.00 0.23 0.23 93 1007.2
20260506033506 12 101 0.0 0.0 0.00 0.23 0.23 94 1007.3
20260506033407 12 101 0.0 0.0 0.00 0.23 0.23 94 1007.2
20260506033307 12 101 0.0 0.0 0.00 0.23 0.23 94 1007.3
20260506033207 12 101 0.0 0.0 0.00 0.23 0.23 94 1007.3
20260506033108 12 101 0.0 0.0 0.00 0.23 0.23 94 1007.3
20260506033007 12 101 0.0 0.0 0.00 0.23 0.23 94 1007.2
20260506032906 12 101 0.0 0.0 0.00 0.23 0.23 94 1007.2
20260506032806 12 101 0.0 0.0 0.00 0.23 0.23 94 1007.3
20260506032706 12 101 0.0 0.0 0.00 0.23 0.23 94 1007.3
20260506032605 12 101 0.0 0.0 0.00 0.23 0.23 94 1007.3
20260506032507 12 101 0.0 0.0 0.00 0.23 0.23 94 1007.2
20260506032404 12 101 0.0 0.0 0.00 0.23 0.23 94 1007.2
20260506032301 12 101 0.0 0.0 0.00 0.23 0.23 95 1007.3
20260506032159 12 101 0.0 0.0 0.00 0.23 0.23 95 1007.3
20260506032057 12 101 0.0 0.0 0.00 0.23 0.23 95 1007.3
20260506031957 12 101 0.0 0.0 0.00 0.23 0.23 95 1007.3
20260506031758 12 101 0.0 0.0 0.00 0.23 0.23 95 1007.3
20260506031656 12 101 0.0 0.0 0.00 0.23 0.23 95 1007.4
20260506031554 12 101 0.0 0.0 0.00 0.23 0.23 95 1007.4
20260506031453 12 101 0.0 0.0 0.00 0.23 0.23 95 1007.4
20260506031245 12 101 0.0 0.0 0.00 0.23 0.23 95 1007.4
20260506031145 12 101 0.0 0.0 0.00 0.23 0.23 95 1007.4
20260506031045 12 101 0.0 0.0 0.00 0.23 0.23 96 1007.4
20260506030942 12 101 0.0 0.0 0.00 0.23 0.23 96 1007.4
20260506030739 12 101 0.0 0.0 0.00 0.23 0.23 96 1007.4
20260506030638 12 101 0.0 0.0 0.00 0.23 0.23 96 1007.4
20260506030537 12 101 0.0 0.0 0.00 0.23 0.23 96 1007.5
20260506030458 12 101 0.0 0.0 0.00 0.23 0.23 96 1007.4
20260506030439 12 101 0.0 0.0 0.00 0.23 0.23 96 1007.4
20260506030234 12 101 0.0 0.0 0.00 0.23 0.23 96 1007.3
20260506030133 12 101 0.0 0.0 0.00 0.23 0.23 96 1007.3
20260506030032 12 101 0.0 0.0 0.00 0.23 0.23 96 1007.3
20260506025930 12 101 0.0 0.0 0.00 0.23 0.23 96 1007.3
20260506025716 12 101 0.0 0.0 0.00 0.23 0.23 96 1007.4
20260506025614 12 101 0.0 0.0 0.00 0.23 0.23 96 1007.4
20260506025514 12 101 0.0 0.0 0.00 0.23 0.23 96 1007.4
20260506025440 12 101 0.0 0.0 0.00 0.23 0.23 96 1007.5
20260506025419 12 101 0.0 0.0 0.00 0.23 0.23 96 1007.4
20260506025212 12 101 0.0 0.0 0.00 0.23 0.23 96 1007.4
20260506025112 12 101 0.0 0.0 0.00 0.23 0.23 96 1007.4
20260506025014 12 101 0.0 0.0 0.00 0.23 0.23 96 1007.4
20260506024910 12 101 0.0 0.0 0.00 0.23 0.23 96 1007.3
20260506024708 12 101 0.0 0.0 0.00 0.23 0.23 96 1007.2
20260506024608 12 101 0.0 0.0 0.00 0.23 0.23 96 1007.2
20260506024507 12 101 0.0 0.0 0.00 0.23 0.23 96 1007.2
20260506024430 12 101 0.0 0.0 0.00 0.23 0.23 96 1007.1
20260506024407 12 101 0.0 0.0 0.00 0.23 0.23 96 1007.1
20260506024156 12 101 0.0 0.0 0.00 0.23 0.23 96 1007.1
20260506024057 12 101 0.0 0.0 0.00 0.23 0.23 96 1007.0
20260506023957 12 101 0.0 0.0 0.00 0.23 0.23 96 1007.1
20260506023854 12 101 0.0 0.0 0.00 0.23 0.23 96 1007.1
20260506023653 12 101 0.0 0.0 0.00 0.23 0.23 96 1007.1
20260506023551 12 101 0.0 0.0 0.00 0.23 0.23 96 1007.1
20260506023450 12 101 0.0 0.0 0.00 0.23 0.23 96 1007.1
20260506023412 12 101 0.0 0.0 0.00 0.23 0.23 96 1007.2
20260506023351 12 101 0.0 0.0 0.00 0.23 0.23 96 1007.2
20260506023144 12 101 0.0 0.0 0.00 0.23 0.23 96 1007.2
20260506023045 12 101 0.0 0.0 0.00 0.23 0.23 96 1007.1
20260506022944 12 101 0.0 0.0 0.00 0.23 0.23 96 1007.1
20260506022842 12 101 0.0 0.0 0.00 0.23 0.23 96 1007.1
20260506022629 12 101 0.0 0.0 0.00 0.23 0.23 96 1007.0
20260506022531 12 101 0.0 0.0 0.00 0.23 0.23 96 1007.0
20260506022431 12 101 0.0 0.0 0.00 0.23 0.23 96 1007.0
20260506022329 12 101 0.0 0.0 0.00 0.23 0.23 96 1007.0
20260506022126 12 101 0.0 0.0 0.00 0.23 0.23 96 1006.9
20260506022024 12 101 0.0 0.0 0.00 0.23 0.23 96 1007.0
20260506021924 12 101 0.0 0.0 0.00 0.23 0.23 96 1007.0
20260506021823 12 101 0.0 0.0 0.00 0.23 0.23 96 1006.9
20260506021617 12 101 0.0 0.0 0.00 0.23 0.23 96 1006.9
20260506021514 12 101 0.0 0.0 0.00 0.23 0.23 96 1006.9
20260506021416 12 101 0.0 0.0 0.00 0.23 0.23 96 1006.9
20260506021314 12 101 0.0 0.0 0.00 0.23 0.23 96 1007.0
20260506021108 12 101 0.0 0.0 0.00 0.23 0.23 95 1006.9
20260506021008 12 101 0.0 0.0 0.00 0.23 0.23 95 1006.9
20260506020909 12 101 0.0 0.0 0.00 0.23 0.23 95 1007.0
20260506020807 12 101 0.0 0.0 0.00 0.23 0.23 95 1007.0
20260506020603 12 101 0.0 0.0 0.00 0.23 0.23 95 1007.1
20260506020502 12 101 0.0 0.0 0.00 0.23 0.23 95 1007.1
20260506020403 12 101 0.0 0.0 0.00 0.23 0.23 95 1007.1
20260506020300 12 101 0.0 0.0 0.00 0.23 0.23 95 1007.1
20260506015957 12 101 0.0 0.0 0.00 0.23 0.23 95 1007.0
20260506015856 12 101 0.0 0.0 0.00 0.23 0.23 95 1007.0
20260506015755 12 101 0.0 0.0 0.00 0.23 0.23 95 1007.0
20260506015540 12 101 0.0 0.0 0.00 0.23 0.23 95 1007.0
20260506015439 12 101 0.0 0.0 0.00 0.23 0.23 94 1007.0
20260506015338 12 101 0.0 0.0 0.00 0.23 0.23 95 1006.9
20260506015305 12 101 0.0 0.0 0.00 0.23 0.23 95 1006.9
20260506015243 12 101 0.0 0.0 0.00 0.23 0.23 94 1006.9
20260506015039 12 101 0.0 0.0 0.00 0.23 0.23 94 1006.9
20260506014936 12 101 0.0 0.0 0.00 0.23 0.23 94 1006.9
20260506014838 12 101 0.0 0.0 0.00 0.23 0.23 94 1007.0
20260506014733 12 101 0.0 0.0 0.00 0.23 0.23 94 1007.0
20260506014533 13 101 0.0 0.0 0.00 0.23 0.23 94 1007.1
20260506014431 13 101 0.0 0.0 0.00 0.23 0.23 94 1007.1
20260506014330 13 101 0.0 0.0 0.00 0.23 0.23 94 1007.1
20260506014229 13 101 0.0 0.0 0.00 0.23 0.23 94 1007.1
20260506014016 13 101 0.0 0.0 0.00 0.23 0.23 94 1007.1
20260506013915 13 101 0.0 0.0 0.00 0.23 0.23 94 1007.0
20260506013817 13 101 0.0 0.0 0.00 0.23 0.23 94 1007.1
20260506013745 13 101 0.0 0.0 0.00 0.23 0.23 94 1007.0
20260506013721 13 101 0.0 0.0 0.00 0.23 0.23 93 1007.0
20260506013510 13 101 0.0 0.0 0.00 0.23 0.23 93 1007.0
20260506013410 13 101 0.0 0.0 0.00 0.23 0.23 93 1007.0
20260506013309 13 101 0.0 0.0 0.00 0.23 0.23 94 1007.0
20260506013210 12 101 0.0 0.0 0.00 0.23 0.23 94 1007.0
20260506013007 12 101 0.0 0.0 0.00 0.23 0.23 95 1007.0
20260506012909 12 101 0.0 0.0 0.00 0.23 0.23 95 1006.9
20260506012807 12 101 0.0 0.0 0.00 0.23 0.23 95 1007.0
20260506012707 12 101 0.0 0.0 0.00 0.23 0.23 95 1007.0
20260506012455 12 101 0.0 0.0 0.00 0.23 0.23 95 1006.9
20260506012354 12 101 0.0 0.0 0.00 0.23 0.23 95 1006.9
20260506012255 12 101 0.0 0.0 0.00 0.23 0.23 95 1007.0
20260506012151 12 101 0.0 0.0 0.00 0.23 0.23 95 1006.9
20260506011950 13 101 0.0 0.0 0.00 0.23 0.23 95 1007.0
20260506011847 13 101 0.0 0.0 0.00 0.23 0.23 95 1006.9
20260506011748 13 101 0.0 0.0 0.00 0.23 0.23 94 1006.8
20260506011646 13 101 0.0 0.0 0.00 0.23 0.23 95 1006.9
20260506011444 13 101 0.0 0.0 0.00 0.23 0.23 95 1006.9
20260506011341 13 101 0.0 0.0 0.00 0.23 0.23 95 1006.8
20260506011242 13 101 0.0 0.0 0.00 0.23 0.23 95 1006.8
20260506011139 13 101 0.0 0.0 0.00 0.23 0.23 94 1006.8
20260506010932 13 101 0.0 0.0 0.00 0.23 0.23 94 1006.8
20260506010832 13 101 0.0 0.0 0.00 0.23 0.23 95 1006.8
20260506010733 13 101 0.0 0.0 0.00 0.23 0.23 94 1006.7
20260506010654 13 101 0.0 0.0 0.00 0.23 0.23 94 1006.6
20260506010633 13 101 0.0 0.0 0.00 0.23 0.23 94 1006.6
20260506010429 13 101 0.0 0.0 0.00 0.23 0.23 94 1006.6
20260506010327 13 101 0.0 0.0 0.00 0.23 0.23 94 1006.6
20260506010225 13 101 0.0 0.0 0.00 0.23 0.23 94 1006.6
20260506010124 13 101 0.0 0.0 0.00 0.23 0.23 94 1006.6
20260506005919 13 101 0.0 6.4 0.00 0.23 0.23 94 1006.6
20260506005815 13 101 0.0 6.4 0.00 0.23 0.23 94 1006.6
20260506005717 13 101 0.0 6.4 0.00 0.23 0.23 93 1006.7
20260506005615 13 101 0.0 6.4 0.00 0.23 0.23 94 1006.7
20260506005406 13 101 0.0 6.4 0.00 0.23 0.23 94 1006.6
20260506005308 13 101 0.0 6.4 0.00 0.23 0.23 93 1006.6
20260506005207 13 101 0.0 6.4 0.00 0.23 0.23 94 1006.6
20260506005104 13 101 0.0 6.4 0.00 0.23 0.23 93 1006.6
20260506004901 13 101 0.0 6.4 0.00 0.23 0.23 93 1006.6
20260506004801 13 101 0.0 6.4 0.00 0.23 0.23 93 1006.6
20260506004701 13 101 0.0 6.4 0.00 0.23 0.23 93 1006.6
20260506004621 13 101 0.0 6.4 0.00 0.23 0.23 93 1006.5
20260506004601 13 101 0.0 6.4 0.00 0.23 0.23 93 1006.6
20260506004356 13 101 0.0 6.4 0.00 0.23 0.23 92 1006.5
20260506004255 13 101 0.0 6.4 0.00 0.23 0.23 93 1006.4
20260506004153 13 101 0.0 6.4 0.00 0.23 0.23 93 1006.4
20260506004053 13 101 0.0 6.4 0.00 0.23 0.23 92 1006.3
20260506003841 13 128 1.6 8.0 0.00 0.23 0.23 93 1006.5
20260506003741 13 128 1.6 8.0 0.00 0.23 0.23 93 1006.4
20260506003640 13 128 1.6 8.0 0.00 0.23 0.23 93 1006.4
20260506003540 13 128 1.6 9.7 0.00 0.23 0.23 93 1006.4
20260506003340 13 74 1.6 9.7 0.00 0.23 0.23 94 1006.4
20260506003238 13 75 1.6 9.7 0.00 0.23 0.23 94 1006.4
20260506003139 13 75 1.6 9.7 0.00 0.23 0.23 94 1006.4